Time,TemperatureF,DewpointF,PressureIn,WindDirection,WindDirectionDegrees,WindSpeedMPH,WindSpeedGustMPH,Humidity,HourlyPrecipIn,Conditions,Clouds,dailyrainin,SoftwareType,DateUTC
2013-09-14 00:01:00,62.0,54.0,30.03,NE,56,0.0,0.0,75,0.00,,---,0.00,VWS V14.01,2013-09-14 05:01:00,
2013-09-14 00:02:00,62.0,54.0,30.03,NE,56,0.0,0.0,75,0.00,,---,0.00,VWS V14.01,2013-09-14 05:02:00,
2013-09-14 00:04:00,62.0,53.6,30.03,NE,56,0.0,0.0,74,0.00,,---,0.00,VWS V14.01,2013-09-14 05:04:00,
2013-09-14 00:06:00,61.8,53.4,30.03,NE,56,0.0,0.0,74,0.00,,---,0.00,VWS V14.01,2013-09-14 05:06:00,
2013-09-14 00:08:00,61.8,53.4,30.03,NE,56,0.0,0.0,74,0.00,,---,0.00,VWS V14.01,2013-09-14 05:08:00,
2013-09-14 00:09:00,61.8,53.4,30.03,NE,56,0.0,0.0,74,0.00,,---,0.00,VWS V14.01,2013-09-14 05:09:00,
2013-09-14 00:11:00,61.8,53.4,30.03,NE,56,0.0,0.0,74,0.00,,---,0.00,VWS V14.01,2013-09-14 05:11:00,
2013-09-14 00:13:00,61.8,53.8,30.03,NE,56,0.0,0.0,75,0.00,,---,0.00,VWS V14.01,2013-09-14 05:13:00,
2013-09-14 00:14:00,61.8,53.8,30.03,NE,56,0.0,0.0,75,0.00,,---,0.00,VWS V14.01,2013-09-14 05:14:00,
2013-09-14 00:15:00,61.6,53.6,30.03,NE,56,0.0,0.0,75,0.00,,---,0.00,VWS V14.01,2013-09-14 05:15:00,
2013-09-14 00:16:00,61.6,53.6,30.03,NE,56,0.0,0.0,75,0.00,,---,0.00,VWS V14.01,2013-09-14 05:16:00,
2013-09-14 00:17:00,61.6,53.6,30.03,NE,56,0.0,0.0,75,0.00,,---,0.00,VWS V14.01,2013-09-14 05:17:00,
2013-09-14 00:18:00,61.5,53.5,30.03,NE,56,0.0,0.0,75,0.00,,---,0.00,VWS V14.01,2013-09-14 05:18:00,
2013-09-14 00:19:00,61.5,53.5,30.03,NE,56,0.0,0.0,75,0.00,,---,0.00,VWS V14.01,2013-09-14 05:19:00,
2013-09-14 00:20:00,61.5,53.5,30.03,NE,56,0.0,0.0,75,0.00,,---,0.00,VWS V14.01,2013-09-14 05:20:00,
2013-09-14 00:21:00,61.5,53.5,30.03,NE,56,0.0,0.0,75,0.00,,---,0.00,VWS V14.01,2013-09-14 05:21:00,
2013-09-14 00:22:00,61.5,53.5,30.03,NE,56,0.0,0.0,75,0.00,,---,0.00,VWS V14.01,2013-09-14 05:22:00,
2013-09-14 00:24:00,61.5,53.5,30.03,NE,56,0.0,0.0,75,0.00,,---,0.00,VWS V14.01,2013-09-14 05:24:00,
2013-09-14 00:25:00,61.5,53.5,30.03,NE,56,0.0,0.0,75,0.00,,---,0.00,VWS V14.01,2013-09-14 05:25:00,
2013-09-14 00:26:00,61.5,53.5,30.03,NE,56,0.0,0.0,75,0.00,,---,0.00,VWS V14.01,2013-09-14 05:26:00,
2013-09-14 00:27:00,61.5,53.5,30.03,NE,56,0.0,0.0,75,0.00,,---,0.00,VWS V14.01,2013-09-14 05:27:00,
2013-09-14 00:29:00,61.6,53.2,30.03,NE,56,0.0,0.0,74,0.00,,---,0.00,VWS V14.01,2013-09-14 05:29:00,
2013-09-14 00:30:00,61.6,53.2,30.02,NE,56,0.0,0.0,74,0.00,,---,0.00,VWS V14.01,2013-09-14 05:30:00,
2013-09-14 00:31:00,61.5,53.2,30.02,NE,56,0.0,0.0,74,0.00,,---,0.00,VWS V14.01,2013-09-14 05:31:00,
2013-09-14 00:32:00,61.6,53.2,30.02,NE,56,0.0,0.0,74,0.00,,---,0.00,VWS V14.01,2013-09-14 05:32:00,
2013-09-14 00:34:00,61.6,53.2,30.02,NE,56,0.0,0.0,74,0.00,,---,0.00,VWS V14.01,2013-09-14 05:34:00,
2013-09-14 00:35:00,61.6,53.2,30.02,ENE,59,0.0,0.0,74,0.00,,---,0.00,VWS V14.01,2013-09-14 05:35:00,
2013-09-14 00:36:00,61.6,53.2,30.02,ENE,59,0.0,0.0,74,0.00,,---,0.00,VWS V14.01,2013-09-14 05:36:00,
2013-09-14 00:37:00,61.6,53.2,30.02,ENE,59,0.0,0.0,74,0.00,,---,0.00,VWS V14.01,2013-09-14 05:37:00,
2013-09-14 00:39:00,61.6,53.2,30.02,ENE,59,0.0,0.0,74,0.00,,---,0.00,VWS V14.01,2013-09-14 05:39:00,
2013-09-14 00:40:00,61.6,53.2,30.02,ENE,59,0.0,0.0,74,0.00,,---,0.00,VWS V14.01,2013-09-14 05:40:00,
2013-09-14 00:41:00,61.6,53.2,30.02,ENE,59,0.0,0.0,74,0.00,,---,0.00,VWS V14.01,2013-09-14 05:41:00,
2013-09-14 00:42:00,61.6,53.2,30.02,ENE,59,0.0,0.0,74,0.00,,---,0.00,VWS V14.01,2013-09-14 05:42:00,
2013-09-14 00:44:00,61.5,53.5,30.02,ENE,59,0.0,0.0,75,0.00,,---,0.00,VWS V14.01,2013-09-14 05:44:00,
2013-09-14 00:45:00,61.5,53.5,30.02,ENE,59,0.0,0.0,75,0.00,,---,0.00,VWS V14.01,2013-09-14 05:45:00,
2013-09-14 00:46:00,61.5,53.5,30.02,ENE,59,0.0,0.0,75,0.00,,---,0.00,VWS V14.01,2013-09-14 05:46:00,
2013-09-14 00:47:00,61.5,53.5,30.02,ENE,59,0.0,0.0,75,0.00,,---,0.00,VWS V14.01,2013-09-14 05:47:00,
2013-09-14 00:49:00,61.3,53.3,30.02,ENE,59,0.0,0.0,75,0.00,,---,0.00,VWS V14.01,2013-09-14 05:49:00,
2013-09-14 00:50:00,61.3,53.3,30.02,ENE,59,0.0,0.0,75,0.00,,---,0.00,VWS V14.01,2013-09-14 05:50:00,
2013-09-14 00:51:00,61.3,53.3,30.02,ENE,59,0.0,0.0,75,0.00,,---,0.00,VWS V14.01,2013-09-14 05:51:00,
2013-09-14 00:52:00,61.3,53.3,30.02,ENE,59,0.0,0.0,75,0.00,,---,0.00,VWS V14.01,2013-09-14 05:52:00,
2013-09-14 00:54:00,61.2,53.6,30.02,ENE,59,0.0,0.0,76,0.00,,---,0.00,VWS V14.01,2013-09-14 05:54:00,
2013-09-14 00:55:00,61.2,53.6,30.02,ENE,59,0.0,0.0,76,0.00,,---,0.00,VWS V14.01,2013-09-14 05:55:00,
2013-09-14 00:56:00,61.2,53.6,30.02,ENE,59,0.0,0.0,76,0.00,,---,0.00,VWS V14.01,2013-09-14 05:56:00,
2013-09-14 00:57:00,61.2,53.6,30.02,ENE,59,0.0,0.0,76,0.00,,---,0.00,VWS V14.01,2013-09-14 05:57:00,
2013-09-14 00:59:00,61.2,53.9,30.02,ENE,59,0.0,0.0,77,0.00,,---,0.00,VWS V14.01,2013-09-14 05:59:00,
2013-09-14 01:00:00,61.0,53.8,30.02,ENE,59,4.0,4.0,77,0.00,,---,0.00,VWS V14.01,2013-09-14 06:00:00,
2013-09-14 01:01:00,61.0,53.8,30.02,ENE,59,3.0,4.0,77,0.00,,---,0.00,VWS V14.01,2013-09-14 06:01:00,
2013-09-14 01:02:00,61.0,54.1,30.02,ENE,59,3.0,4.0,78,0.00,,---,0.00,VWS V14.01,2013-09-14 06:02:00,
2013-09-14 01:05:00,60.9,54.0,30.02,ENE,59,3.0,4.0,78,0.00,,---,0.00,VWS V14.01,2013-09-14 06:05:00,
2013-09-14 01:06:00,60.9,54.0,30.02,ENE,59,3.0,4.0,78,0.00,,---,0.00,VWS V14.01,2013-09-14 06:06:00,
2013-09-14 01:07:00,60.7,53.8,30.02,ENE,59,2.0,4.0,78,0.00,,---,0.00,VWS V14.01,2013-09-14 06:07:00,
2013-09-14 01:10:00,60.7,54.2,30.02,ENE,59,2.0,4.0,79,0.00,,---,0.00,VWS V14.01,2013-09-14 06:10:00,
2013-09-14 01:11:00,60.7,54.2,30.02,ENE,59,3.0,3.0,79,0.00,,---,0.00,VWS V14.01,2013-09-14 06:11:00,
2013-09-14 01:12:00,60.5,54.0,30.02,ENE,59,3.0,3.0,79,0.00,,---,0.00,VWS V14.01,2013-09-14 06:12:00,
2013-09-14 01:15:00,60.5,53.6,30.02,ENE,59,1.0,3.0,78,0.00,,---,0.00,VWS V14.01,2013-09-14 06:15:00,
2013-09-14 01:16:00,60.5,53.6,30.02,ENE,59,1.0,3.0,78,0.00,,---,0.00,VWS V14.01,2013-09-14 06:16:00,
2013-09-14 01:17:00,60.5,53.6,30.02,ENE,59,1.0,3.0,78,0.00,,---,0.00,VWS V14.01,2013-09-14 06:17:00,
2013-09-14 01:20:00,60.5,53.6,30.02,ENE,59,0.0,3.0,78,0.00,,---,0.00,VWS V14.01,2013-09-14 06:20:00,
2013-09-14 01:21:00,60.5,53.6,30.02,ENE,59,0.0,0.0,78,0.00,,---,0.00,VWS V14.01,2013-09-14 06:21:00,
2013-09-14 01:22:00,60.5,53.6,30.02,ENE,59,0.0,0.0,78,0.00,,---,0.00,VWS V14.01,2013-09-14 06:22:00,
2013-09-14 01:25:00,60.5,53.6,30.02,ENE,59,0.0,0.0,78,0.00,,---,0.00,VWS V14.01,2013-09-14 06:25:00,
2013-09-14 01:26:00,60.5,53.6,30.02,ENE,59,0.0,0.0,78,0.00,,---,0.00,VWS V14.01,2013-09-14 06:26:00,
2013-09-14 01:27:00,60.5,53.6,30.02,ENE,59,0.0,0.0,78,0.00,,---,0.00,VWS V14.01,2013-09-14 06:27:00,
2013-09-14 01:28:00,60.4,53.5,30.02,ENE,59,0.0,0.0,78,0.00,,---,0.00,VWS V14.01,2013-09-14 06:28:00,
2013-09-14 01:30:00,60.4,53.5,30.02,ENE,59,0.0,0.0,78,0.00,,---,0.00,VWS V14.01,2013-09-14 06:30:00,
2013-09-14 01:31:00,60.4,53.5,30.02,ENE,59,0.0,0.0,78,0.00,,---,0.00,VWS V14.01,2013-09-14 06:31:00,
2013-09-14 01:32:00,60.4,53.5,30.02,ENE,59,0.0,0.0,78,0.00,,---,0.00,VWS V14.01,2013-09-14 06:32:00,
2013-09-14 01:33:00,60.4,53.2,30.02,ENE,59,0.0,0.0,77,0.00,,---,0.00,VWS V14.01,2013-09-14 06:33:00,
2013-09-14 01:35:00,60.4,53.2,30.02,ENE,59,0.0,0.0,77,0.00,,---,0.00,VWS V14.01,2013-09-14 06:35:00,
2013-09-14 01:36:00,60.4,53.2,30.02,ENE,59,0.0,0.0,77,0.00,,---,0.00,VWS V14.01,2013-09-14 06:36:00,
2013-09-14 01:37:00,60.4,53.2,30.02,ENE,59,0.0,0.0,77,0.00,,---,0.00,VWS V14.01,2013-09-14 06:37:00,
2013-09-14 01:38:00,60.4,53.2,30.02,ENE,59,0.0,0.0,77,0.00,,---,0.00,VWS V14.01,2013-09-14 06:38:00,
2013-09-14 01:40:00,60.4,53.2,30.02,ENE,59,0.0,0.0,77,0.00,,---,0.00,VWS V14.01,2013-09-14 06:40:00,
2013-09-14 01:41:00,60.4,53.2,30.02,ENE,59,0.0,0.0,77,0.00,,---,0.00,VWS V14.01,2013-09-14 06:41:00,
2013-09-14 01:42:00,60.4,53.2,30.02,ENE,59,0.0,0.0,77,0.00,,---,0.00,VWS V14.01,2013-09-14 06:42:00,
2013-09-14 01:43:00,60.2,53.0,30.02,ENE,59,0.0,0.0,77,0.00,,---,0.00,VWS V14.01,2013-09-14 06:43:00,
2013-09-14 01:45:00,60.2,53.0,30.01,ENE,59,0.0,0.0,77,0.00,,---,0.00,VWS V14.01,2013-09-14 06:45:00,
2013-09-14 01:46:00,60.2,53.0,30.01,ENE,59,0.0,0.0,77,0.00,,---,0.00,VWS V14.01,2013-09-14 06:46:00,
2013-09-14 01:47:00,60.2,53.0,30.01,ENE,59,0.0,0.0,77,0.00,,---,0.00,VWS V14.01,2013-09-14 06:47:00,
2013-09-14 01:48:00,60.1,52.9,30.01,ENE,59,0.0,0.0,77,0.00,,---,0.00,VWS V14.01,2013-09-14 06:48:00,
2013-09-14 01:50:00,60.1,52.9,30.01,ENE,59,0.0,0.0,77,0.00,,---,0.00,VWS V14.01,2013-09-14 06:50:00,
2013-09-14 01:51:00,60.1,52.9,30.01,ENE,59,0.0,0.0,77,0.00,,---,0.00,VWS V14.01,2013-09-14 06:51:00,
2013-09-14 01:52:00,60.1,52.9,30.01,ENE,59,0.0,0.0,77,0.00,,---,0.00,VWS V14.01,2013-09-14 06:52:00,
2013-09-14 01:53:00,60.1,52.9,30.01,ENE,59,0.0,0.0,77,0.00,,---,0.00,VWS V14.01,2013-09-14 06:53:00,
2013-09-14 01:56:00,59.9,52.7,30.01,ENE,59,0.0,0.0,77,0.00,,---,0.00,VWS V14.01,2013-09-14 06:56:00,
2013-09-14 01:57:00,59.9,52.3,30.01,ENE,59,0.0,0.0,76,0.00,,---,0.00,VWS V14.01,2013-09-14 06:57:00,
2013-09-14 01:58:00,59.9,52.7,30.01,ENE,59,0.0,0.0,77,0.00,,---,0.00,VWS V14.01,2013-09-14 06:58:00,
2013-09-14 02:01:00,59.9,52.3,30.01,ENE,59,0.0,0.0,76,0.00,,---,0.00,VWS V14.01,2013-09-14 07:01:00,
2013-09-14 02:02:00,59.9,52.3,30.01,ENE,59,0.0,0.0,76,0.00,,---,0.00,VWS V14.01,2013-09-14 07:02:00,
2013-09-14 02:03:00,59.9,52.7,30.01,ENE,59,0.0,0.0,77,0.00,,---,0.00,VWS V14.01,2013-09-14 07:03:00,
2013-09-14 02:06:00,59.9,52.3,30.01,ENE,59,0.0,0.0,76,0.00,,---,0.00,VWS V14.01,2013-09-14 07:06:00,
2013-09-14 02:07:00,59.9,52.3,30.01,ENE,59,0.0,0.0,76,0.00,,---,0.00,VWS V14.01,2013-09-14 07:07:00,
2013-09-14 02:08:00,59.9,52.3,30.01,ENE,59,0.0,0.0,76,0.00,,---,0.00,VWS V14.01,2013-09-14 07:08:00,
2013-09-14 02:11:00,59.8,52.2,30.01,ENE,59,0.0,0.0,76,0.00,,---,0.00,VWS V14.01,2013-09-14 07:11:00,
2013-09-14 02:12:00,59.8,52.2,30.01,ENE,59,0.0,0.0,76,0.00,,---,0.00,VWS V14.01,2013-09-14 07:12:00,
2013-09-14 02:13:00,59.8,52.2,30.01,ENE,59,0.0,0.0,76,0.00,,---,0.00,VWS V14.01,2013-09-14 07:13:00,
2013-09-14 02:14:00,59.8,52.2,30.01,ENE,59,0.0,0.0,76,0.00,,---,0.00,VWS V14.01,2013-09-14 07:14:00,
2013-09-14 02:16:00,59.6,52.0,30.01,ENE,59,0.0,0.0,76,0.00,,---,0.00,VWS V14.01,2013-09-14 07:16:00,
2013-09-14 02:17:00,59.6,52.0,30.01,ENE,59,0.0,0.0,76,0.00,,---,0.00,VWS V14.01,2013-09-14 07:17:00,
2013-09-14 02:18:00,59.6,52.0,30.01,ENE,59,0.0,0.0,76,0.00,,---,0.00,VWS V14.01,2013-09-14 07:18:00,
2013-09-14 02:19:00,59.6,52.0,30.01,ENE,59,0.0,0.0,76,0.00,,---,0.00,VWS V14.01,2013-09-14 07:19:00,
2013-09-14 02:22:00,59.6,52.0,30.01,ENE,59,0.0,0.0,76,0.00,,---,0.00,VWS V14.01,2013-09-14 07:22:00,
2013-09-14 02:23:00,59.6,52.0,30.01,ENE,59,0.0,0.0,76,0.00,,---,0.00,VWS V14.01,2013-09-14 07:23:00,
2013-09-14 02:24:00,59.6,52.0,30.01,ENE,59,0.0,0.0,76,0.00,,---,0.00,VWS V14.01,2013-09-14 07:24:00,
2013-09-14 02:27:00,59.6,52.0,30.01,ENE,59,0.0,0.0,76,0.00,,---,0.00,VWS V14.01,2013-09-14 07:27:00,
2013-09-14 02:28:00,59.6,52.0,30.01,ENE,59,0.0,0.0,76,0.00,,---,0.00,VWS V14.01,2013-09-14 07:28:00,
2013-09-14 02:29:00,59.6,52.0,30.01,ENE,59,0.0,0.0,76,0.00,,---,0.00,VWS V14.01,2013-09-14 07:29:00,
2013-09-14 02:31:00,59.6,52.0,30.01,ENE,59,0.0,0.0,76,0.00,,---,0.00,VWS V14.01,2013-09-14 07:31:00,
2013-09-14 02:32:00,59.6,52.0,30.01,ENE,59,0.0,0.0,76,0.00,,---,0.00,VWS V14.01,2013-09-14 07:32:00,
2013-09-14 02:33:00,59.6,52.0,30.01,ENE,59,0.0,0.0,76,0.00,,---,0.00,VWS V14.01,2013-09-14 07:33:00,
2013-09-14 02:34:00,59.6,52.0,30.01,ENE,59,0.0,0.0,76,0.00,,---,0.00,VWS V14.01,2013-09-14 07:34:00,
2013-09-14 02:37:00,59.6,51.7,30.01,ENE,59,0.0,0.0,75,0.00,,---,0.00,VWS V14.01,2013-09-14 07:37:00,
2013-09-14 02:38:00,59.6,51.7,30.01,ENE,59,0.0,0.0,75,0.00,,---,0.00,VWS V14.01,2013-09-14 07:38:00,
2013-09-14 02:39:00,59.6,51.7,30.01,ENE,59,0.0,0.0,75,0.00,,---,0.00,VWS V14.01,2013-09-14 07:39:00,
2013-09-14 02:42:00,59.6,52.0,30.01,ENE,59,0.0,0.0,76,0.00,,---,0.00,VWS V14.01,2013-09-14 07:42:00,
2013-09-14 02:43:00,59.6,52.0,30.01,ENE,59,0.0,0.0,76,0.00,,---,0.00,VWS V14.01,2013-09-14 07:43:00,
2013-09-14 02:44:00,59.5,51.9,30.01,ENE,59,4.0,4.0,76,0.00,,---,0.00,VWS V14.01,2013-09-14 07:44:00,
2013-09-14 02:47:00,59.3,51.8,30.01,ENE,59,5.0,5.0,76,0.00,,---,0.00,VWS V14.01,2013-09-14 07:47:00,
2013-09-14 02:48:00,59.3,51.8,30.01,ENE,59,4.0,5.0,76,0.00,,---,0.00,VWS V14.01,2013-09-14 07:48:00,
2013-09-14 02:50:00,59.3,51.8,30.01,ENE,59,4.0,5.0,76,0.00,,---,0.00,VWS V14.01,2013-09-14 07:50:00,
2013-09-14 02:52:00,59.3,51.8,30.01,ENE,59,5.0,5.0,76,0.00,,---,0.00,VWS V14.01,2013-09-14 07:52:00,
2013-09-14 02:53:00,59.3,51.8,30.01,ENE,59,5.0,5.0,76,0.00,,---,0.00,VWS V14.01,2013-09-14 07:53:00,
2013-09-14 02:55:00,59.3,51.8,30.01,ENE,59,5.0,5.0,76,0.00,,---,0.00,VWS V14.01,2013-09-14 07:55:00,
2013-09-14 02:57:00,59.2,51.7,30.01,ENE,59,4.0,5.0,76,0.00,,---,0.00,VWS V14.01,2013-09-14 07:57:00,
2013-09-14 02:58:00,59.2,51.7,30.01,ENE,59,4.0,5.0,76,0.00,,---,0.00,VWS V14.01,2013-09-14 07:58:00,
2013-09-14 03:00:00,59.2,52.0,30.00,ENE,59,4.0,5.0,77,0.00,,---,0.00,VWS V14.01,2013-09-14 08:00:00,
2013-09-14 03:02:00,59.2,52.0,30.00,ENE,59,3.0,5.0,77,0.00,,---,0.00,VWS V14.01,2013-09-14 08:02:00,
2013-09-14 03:03:00,59.2,52.0,30.00,ENE,59,4.0,5.0,77,0.00,,---,0.00,VWS V14.01,2013-09-14 08:03:00,
2013-09-14 03:05:00,59.0,51.8,30.00,ENE,59,4.0,5.0,77,0.00,,---,0.00,VWS V14.01,2013-09-14 08:05:00,
2013-09-14 03:07:00,59.0,52.2,30.00,ENE,59,3.0,5.0,78,0.00,,---,0.00,VWS V14.01,2013-09-14 08:07:00,
2013-09-14 03:08:00,58.9,52.1,30.00,ENE,59,3.0,5.0,78,0.00,,---,0.00,VWS V14.01,2013-09-14 08:08:00,
2013-09-14 03:10:00,58.9,52.1,30.00,ENE,59,4.0,5.0,78,0.00,,---,0.00,VWS V14.01,2013-09-14 08:10:00,
2013-09-14 03:12:00,58.7,51.9,30.00,ENE,59,3.0,4.0,78,0.00,,---,0.00,VWS V14.01,2013-09-14 08:12:00,
2013-09-14 03:13:00,58.7,52.2,30.00,ENE,59,4.0,4.0,79,0.00,,---,0.00,VWS V14.01,2013-09-14 08:13:00,
2013-09-14 03:14:00,58.7,52.2,30.00,ENE,59,3.0,4.0,79,0.00,,---,0.00,VWS V14.01,2013-09-14 08:14:00,
2013-09-14 03:15:00,58.7,52.2,30.00,ENE,59,3.0,4.0,79,0.00,,---,0.00,VWS V14.01,2013-09-14 08:15:00,
2013-09-14 03:17:00,58.6,52.1,30.00,ENE,63,4.0,5.0,79,0.00,,---,0.00,VWS V14.01,2013-09-14 08:17:00,
2013-09-14 03:18:00,58.6,52.1,30.00,ENE,63,4.0,5.0,79,0.00,,---,0.00,VWS V14.01,2013-09-14 08:18:00,
2013-09-14 03:19:00,58.4,51.9,30.00,ENE,63,6.0,6.0,79,0.00,,---,0.00,VWS V14.01,2013-09-14 08:19:00,
2013-09-14 03:20:00,58.4,52.3,30.00,ENE,63,4.0,6.0,80,0.00,,---,0.00,VWS V14.01,2013-09-14 08:20:00,
2013-09-14 03:22:00,58.4,52.3,30.00,ENE,63,5.0,5.0,80,0.00,,---,0.00,VWS V14.01,2013-09-14 08:22:00,
2013-09-14 03:23:00,58.3,52.2,30.00,ENE,63,5.0,5.0,80,0.00,,---,0.00,VWS V14.01,2013-09-14 08:23:00,
2013-09-14 03:24:00,58.3,52.2,30.00,ENE,63,4.0,5.0,80,0.00,,---,0.00,VWS V14.01,2013-09-14 08:24:00,
2013-09-14 03:26:00,58.3,52.2,30.00,ENE,62,5.0,6.0,80,0.00,,---,0.00,VWS V14.01,2013-09-14 08:26:00,
2013-09-14 03:27:00,58.3,52.2,30.00,ENE,62,4.0,6.0,80,0.00,,---,0.00,VWS V14.01,2013-09-14 08:27:00,
2013-09-14 03:28:00,58.1,52.0,30.00,ENE,62,4.0,6.0,80,0.00,,---,0.00,VWS V14.01,2013-09-14 08:28:00,
2013-09-14 03:29:00,58.1,52.0,30.00,ENE,62,5.0,6.0,80,0.00,,---,0.00,VWS V14.01,2013-09-14 08:29:00,
2013-09-14 03:31:00,58.3,51.8,30.00,ENE,62,5.0,6.0,79,0.00,,---,0.00,VWS V14.01,2013-09-14 08:31:00,
2013-09-14 03:32:00,58.3,51.8,30.00,ENE,62,5.0,6.0,79,0.00,,---,0.00,VWS V14.01,2013-09-14 08:32:00,
2013-09-14 03:33:00,58.3,51.8,30.00,ENE,61,5.0,6.0,79,0.00,,---,0.00,VWS V14.01,2013-09-14 08:33:00,
2013-09-14 03:34:00,58.3,51.8,30.00,ENE,61,4.0,6.0,79,0.00,,---,0.00,VWS V14.01,2013-09-14 08:34:00,
2013-09-14 03:35:00,58.3,51.8,30.00,ENE,61,4.0,6.0,79,0.00,,---,0.00,VWS V14.01,2013-09-14 08:35:00,
2013-09-14 03:36:00,58.3,51.8,30.00,ENE,61,4.0,6.0,79,0.00,,---,0.00,VWS V14.01,2013-09-14 08:36:00,
2013-09-14 03:37:00,58.4,51.9,30.00,ENE,61,3.0,6.0,79,0.00,,---,0.00,VWS V14.01,2013-09-14 08:37:00,
2013-09-14 03:38:00,58.4,51.9,30.00,ENE,61,3.0,6.0,79,0.00,,---,0.00,VWS V14.01,2013-09-14 08:38:00,
2013-09-14 03:40:00,58.4,51.9,30.00,ENE,61,3.0,6.0,79,0.00,,---,0.00,VWS V14.01,2013-09-14 08:40:00,
2013-09-14 03:41:00,58.4,51.6,30.00,ENE,61,2.0,4.0,78,0.00,,---,0.00,VWS V14.01,2013-09-14 08:41:00,
2013-09-14 03:42:00,58.4,51.6,30.00,ENE,61,2.0,4.0,78,0.00,,---,0.00,VWS V14.01,2013-09-14 08:42:00,
2013-09-14 03:43:00,58.4,51.6,30.00,ENE,61,2.0,4.0,78,0.00,,---,0.00,VWS V14.01,2013-09-14 08:43:00,
2013-09-14 03:45:00,58.4,51.6,30.00,ENE,61,1.0,4.0,78,0.00,,---,0.00,VWS V14.01,2013-09-14 08:45:00,
2013-09-14 03:46:00,58.4,51.6,30.00,ENE,61,0.0,4.0,78,0.00,,---,0.00,VWS V14.01,2013-09-14 08:46:00,
2013-09-14 03:47:00,58.4,51.6,30.00,ENE,61,0.0,4.0,78,0.00,,---,0.00,VWS V14.01,2013-09-14 08:47:00,
2013-09-14 03:48:00,58.4,51.2,30.00,ENE,61,0.0,4.0,77,0.00,,---,0.00,VWS V14.01,2013-09-14 08:48:00,
2013-09-14 03:49:00,58.4,51.2,30.00,ENE,61,0.0,4.0,77,0.00,,---,0.00,VWS V14.01,2013-09-14 08:49:00,
2013-09-14 03:51:00,58.4,51.2,30.00,ENE,61,0.0,0.0,77,0.00,,---,0.00,VWS V14.01,2013-09-14 08:51:00,
2013-09-14 03:52:00,58.4,51.2,30.00,ENE,61,0.0,0.0,77,0.00,,---,0.00,VWS V14.01,2013-09-14 08:52:00,
2013-09-14 03:53:00,58.4,51.2,30.00,ENE,61,0.0,0.0,77,0.00,,---,0.00,VWS V14.01,2013-09-14 08:53:00,
2013-09-14 03:54:00,58.4,51.2,30.00,ENE,61,0.0,0.0,77,0.00,,---,0.00,VWS V14.01,2013-09-14 08:54:00,
2013-09-14 03:56:00,58.4,51.2,30.00,ENE,61,0.0,0.0,77,0.00,,---,0.00,VWS V14.01,2013-09-14 08:56:00,
2013-09-14 03:57:00,58.4,51.2,30.00,ENE,61,0.0,0.0,77,0.00,,---,0.00,VWS V14.01,2013-09-14 08:57:00,
2013-09-14 03:58:00,58.4,51.2,30.00,ENE,61,0.0,0.0,77,0.00,,---,0.00,VWS V14.01,2013-09-14 08:58:00,
2013-09-14 03:59:00,58.4,51.2,30.00,ENE,61,0.0,0.0,77,0.00,,---,0.00,VWS V14.01,2013-09-14 08:59:00,
2013-09-14 04:01:00,58.6,51.4,30.00,ENE,61,0.0,0.0,77,0.00,,---,0.00,VWS V14.01,2013-09-14 09:01:00,
2013-09-14 04:02:00,58.4,51.2,30.00,ENE,61,0.0,0.0,77,0.00,,---,0.00,VWS V14.01,2013-09-14 09:02:00,
2013-09-14 04:03:00,58.4,51.2,30.00,ENE,61,0.0,0.0,77,0.00,,---,0.00,VWS V14.01,2013-09-14 09:03:00,
2013-09-14 04:04:00,58.4,51.2,30.00,ENE,61,0.0,0.0,77,0.00,,---,0.00,VWS V14.01,2013-09-14 09:04:00,
2013-09-14 04:06:00,58.4,51.2,30.00,ENE,61,0.0,0.0,77,0.00,,---,0.00,VWS V14.01,2013-09-14 09:06:00,
2013-09-14 04:07:00,58.4,51.2,30.00,ENE,61,0.0,0.0,77,0.00,,---,0.00,VWS V14.01,2013-09-14 09:07:00,
2013-09-14 04:08:00,58.4,51.2,30.00,ENE,61,0.0,0.0,77,0.00,,---,0.00,VWS V14.01,2013-09-14 09:08:00,
2013-09-14 04:09:00,58.4,51.2,30.00,ENE,61,0.0,0.0,77,0.00,,---,0.00,VWS V14.01,2013-09-14 09:09:00,
2013-09-14 04:11:00,58.4,51.2,30.00,ENE,61,3.0,4.0,77,0.00,,---,0.00,VWS V14.01,2013-09-14 09:11:00,
2013-09-14 04:12:00,58.3,51.1,30.00,ENE,61,3.0,4.0,77,0.00,,---,0.00,VWS V14.01,2013-09-14 09:12:00,
2013-09-14 04:13:00,58.3,51.1,30.00,ENE,61,4.0,5.0,77,0.00,,---,0.00,VWS V14.01,2013-09-14 09:13:00,
2013-09-14 04:14:00,58.3,51.1,30.00,ENE,61,4.0,5.0,77,0.00,,---,0.00,VWS V14.01,2013-09-14 09:14:00,
2013-09-14 04:17:00,58.3,51.1,30.00,ENE,61,4.0,5.0,77,0.00,,---,0.00,VWS V14.01,2013-09-14 09:17:00,
2013-09-14 04:18:00,58.3,51.1,30.00,ENE,61,4.0,5.0,77,0.00,,---,0.00,VWS V14.01,2013-09-14 09:18:00,
2013-09-14 04:19:00,58.3,51.1,30.00,ENE,61,4.0,5.0,77,0.00,,---,0.00,VWS V14.01,2013-09-14 09:19:00,
2013-09-14 04:22:00,58.1,51.3,30.00,ENE,61,4.0,4.0,78,0.00,,---,0.00,VWS V14.01,2013-09-14 09:22:00,
2013-09-14 04:23:00,58.1,51.3,30.00,ENE,61,4.0,4.0,78,0.00,,---,0.00,VWS V14.01,2013-09-14 09:23:00,
2013-09-14 04:24:00,58.1,51.3,30.00,ENE,61,3.0,4.0,78,0.00,,---,0.00,VWS V14.01,2013-09-14 09:24:00,
2013-09-14 04:27:00,58.1,51.3,30.00,ENE,61,3.0,4.0,78,0.00,,---,0.00,VWS V14.01,2013-09-14 09:27:00,
2013-09-14 04:28:00,58.1,51.3,30.00,ENE,61,2.0,4.0,78,0.00,,---,0.00,VWS V14.01,2013-09-14 09:28:00,
2013-09-14 04:29:00,58.0,51.2,30.00,ENE,61,0.0,4.0,78,0.00,,---,0.00,VWS V14.01,2013-09-14 09:29:00,
2013-09-14 04:32:00,57.8,51.3,30.00,ENE,61,0.0,0.0,79,0.00,,---,0.00,VWS V14.01,2013-09-14 09:32:00,
2013-09-14 04:33:00,57.8,51.3,30.00,ENE,61,0.0,0.0,79,0.00,,---,0.00,VWS V14.01,2013-09-14 09:33:00,
2013-09-14 04:34:00,57.8,51.3,30.00,ENE,61,0.0,0.0,79,0.00,,---,0.00,VWS V14.01,2013-09-14 09:34:00,
2013-09-14 04:37:00,57.8,51.3,30.00,ENE,61,0.0,0.0,79,0.00,,---,0.00,VWS V14.01,2013-09-14 09:37:00,
2013-09-14 04:38:00,57.6,51.1,30.00,ENE,61,0.0,0.0,79,0.00,,---,0.00,VWS V14.01,2013-09-14 09:38:00,
2013-09-14 04:39:00,57.6,51.1,30.00,ENE,61,0.0,0.0,79,0.00,,---,0.00,VWS V14.01,2013-09-14 09:39:00,
2013-09-14 04:42:00,57.6,51.1,30.00,ENE,61,0.0,0.0,79,0.00,,---,0.00,VWS V14.01,2013-09-14 09:42:00,
2013-09-14 04:43:00,57.6,51.1,30.00,ENE,61,0.0,0.0,79,0.00,,---,0.00,VWS V14.01,2013-09-14 09:43:00,
2013-09-14 04:44:00,57.6,51.1,30.00,ENE,61,0.0,0.0,79,0.00,,---,0.00,VWS V14.01,2013-09-14 09:44:00,
2013-09-14 04:45:00,57.6,51.1,30.00,ENE,61,0.0,0.0,79,0.00,,---,0.00,VWS V14.01,2013-09-14 09:45:00,
2013-09-14 04:47:00,57.6,51.1,30.00,ENE,61,0.0,0.0,79,0.00,,---,0.00,VWS V14.01,2013-09-14 09:47:00,
2013-09-14 04:49:00,57.6,51.1,30.00,ENE,61,0.0,0.0,79,0.00,,---,0.00,VWS V14.01,2013-09-14 09:49:00,
2013-09-14 04:50:00,57.6,51.1,30.00,ENE,61,0.0,0.0,79,0.00,,---,0.00,VWS V14.01,2013-09-14 09:50:00,
2013-09-14 04:53:00,57.6,51.1,30.00,ENE,61,0.0,0.0,79,0.00,,---,0.00,VWS V14.01,2013-09-14 09:53:00,
2013-09-14 04:54:00,57.6,51.1,30.00,ENE,61,0.0,0.0,79,0.00,,---,0.00,VWS V14.01,2013-09-14 09:54:00,
2013-09-14 04:55:00,57.6,51.1,30.00,ENE,61,0.0,0.0,79,0.00,,---,0.00,VWS V14.01,2013-09-14 09:55:00,
2013-09-14 04:58:00,57.6,51.1,30.00,ENE,61,0.0,0.0,79,0.00,,---,0.00,VWS V14.01,2013-09-14 09:58:00,
2013-09-14 04:59:00,57.6,51.1,30.00,ENE,61,0.0,0.0,79,0.00,,---,0.00,VWS V14.01,2013-09-14 09:59:00,
2013-09-14 05:00:00,57.5,51.0,29.99,ENE,61,0.0,0.0,79,0.00,,---,0.00,VWS V14.01,2013-09-14 10:00:00,
2013-09-14 05:03:00,57.5,50.7,29.99,ENE,61,0.0,0.0,78,0.00,,---,0.00,VWS V14.01,2013-09-14 10:03:00,
2013-09-14 05:04:00,57.5,50.7,29.99,ENE,61,0.0,0.0,78,0.00,,---,0.00,VWS V14.01,2013-09-14 10:04:00,
2013-09-14 05:05:00,57.5,50.7,29.99,ENE,61,0.0,0.0,78,0.00,,---,0.00,VWS V14.01,2013-09-14 10:05:00,
2013-09-14 05:08:00,57.5,50.7,29.99,ENE,61,0.0,0.0,78,0.00,,---,0.00,VWS V14.01,2013-09-14 10:08:00,
2013-09-14 05:09:00,57.5,50.7,29.99,ENE,61,0.0,0.0,78,0.00,,---,0.00,VWS V14.01,2013-09-14 10:09:00,
2013-09-14 05:10:00,57.5,50.7,29.99,ENE,61,0.0,0.0,78,0.00,,---,0.00,VWS V14.01,2013-09-14 10:10:00,
2013-09-14 05:13:00,57.5,50.7,29.99,ENE,61,0.0,0.0,78,0.00,,---,0.00,VWS V14.01,2013-09-14 10:13:00,
2013-09-14 05:14:00,57.5,51.0,29.99,ENE,61,0.0,0.0,79,0.00,,---,0.00,VWS V14.01,2013-09-14 10:14:00,
2013-09-14 05:15:00,57.3,50.8,30.00,ENE,61,0.0,0.0,79,0.00,,---,0.00,VWS V14.01,2013-09-14 10:15:00,
2013-09-14 05:18:00,57.3,50.5,30.00,ENE,61,0.0,0.0,78,0.00,,---,0.00,VWS V14.01,2013-09-14 10:18:00,
2013-09-14 05:19:00,57.3,50.5,30.00,ENE,61,0.0,0.0,78,0.00,,---,0.00,VWS V14.01,2013-09-14 10:19:00,
2013-09-14 05:20:00,57.3,50.5,30.00,ENE,61,0.0,0.0,78,0.00,,---,0.00,VWS V14.01,2013-09-14 10:20:00,
2013-09-14 05:21:00,57.3,50.5,30.00,ENE,61,0.0,0.0,78,0.00,,---,0.00,VWS V14.01,2013-09-14 10:21:00,
2013-09-14 05:23:00,57.3,50.5,30.00,ENE,61,0.0,0.0,78,0.00,,---,0.00,VWS V14.01,2013-09-14 10:23:00,
2013-09-14 05:24:00,57.3,50.5,30.00,ENE,61,0.0,0.0,78,0.00,,---,0.00,VWS V14.01,2013-09-14 10:24:00,
2013-09-14 05:25:00,57.3,50.5,30.00,ENE,61,0.0,0.0,78,0.00,,---,0.00,VWS V14.01,2013-09-14 10:25:00,
2013-09-14 05:26:00,57.3,50.5,30.00,ENE,61,0.0,0.0,78,0.00,,---,0.00,VWS V14.01,2013-09-14 10:26:00,
2013-09-14 05:28:00,57.3,50.5,30.00,ENE,61,0.0,0.0,78,0.00,,---,0.00,VWS V14.01,2013-09-14 10:28:00,
2013-09-14 05:29:00,57.3,50.5,30.00,ENE,61,0.0,0.0,78,0.00,,---,0.00,VWS V14.01,2013-09-14 10:29:00,
2013-09-14 05:30:00,57.3,50.5,30.00,ENE,61,0.0,0.0,78,0.00,,---,0.00,VWS V14.01,2013-09-14 10:30:00,
2013-09-14 05:31:00,57.3,50.5,30.00,ENE,61,4.0,4.0,78,0.00,,---,0.00,VWS V14.01,2013-09-14 10:31:00,
2013-09-14 05:33:00,57.3,50.5,30.00,ENE,61,5.0,5.0,78,0.00,,---,0.00,VWS V14.01,2013-09-14 10:33:00,
2013-09-14 05:34:00,57.2,50.4,30.00,ENE,59,5.0,6.0,78,0.00,,---,0.00,VWS V14.01,2013-09-14 10:34:00,
2013-09-14 05:35:00,57.2,50.4,30.00,ENE,59,5.0,6.0,78,0.00,,---,0.00,VWS V14.01,2013-09-14 10:35:00,
2013-09-14 05:36:00,57.2,50.8,30.00,ENE,59,5.0,6.0,79,0.00,,---,0.00,VWS V14.01,2013-09-14 10:36:00,
2013-09-14 05:38:00,57.2,50.8,30.00,ENE,59,4.0,6.0,79,0.00,,---,0.00,VWS V14.01,2013-09-14 10:38:00,
2013-09-14 05:39:00,57.2,50.8,30.00,ENE,57,5.0,6.0,79,0.00,,---,0.00,VWS V14.01,2013-09-14 10:39:00,
2013-09-14 05:40:00,57.2,50.8,30.00,ENE,57,4.0,6.0,79,0.00,,---,0.00,VWS V14.01,2013-09-14 10:40:00,
2013-09-14 05:41:00,57.2,50.8,30.00,ENE,57,4.0,4.0,79,0.00,,---,0.00,VWS V14.01,2013-09-14 10:41:00,
2013-09-14 05:43:00,57.0,50.6,30.00,ENE,57,3.0,5.0,79,0.00,,---,0.00,VWS V14.01,2013-09-14 10:43:00,
2013-09-14 05:44:00,57.0,50.6,30.00,ENE,57,3.0,5.0,79,0.00,,---,0.00,VWS V14.01,2013-09-14 10:44:00,
2013-09-14 05:45:00,57.0,50.6,30.00,ENE,57,4.0,5.0,79,0.00,,---,0.00,VWS V14.01,2013-09-14 10:45:00,
2013-09-14 05:46:00,57.0,50.6,30.00,ENE,57,4.0,5.0,79,0.00,,---,0.00,VWS V14.01,2013-09-14 10:46:00,
2013-09-14 05:47:00,57.0,50.6,30.00,ENE,57,3.0,5.0,79,0.00,,---,0.00,VWS V14.01,2013-09-14 10:47:00,
2013-09-14 05:48:00,57.0,50.6,30.00,ENE,57,2.0,5.0,79,0.00,,---,0.00,VWS V14.01,2013-09-14 10:48:00,
2013-09-14 05:49:00,57.0,50.6,30.00,ENE,57,4.0,5.0,79,0.00,,---,0.00,VWS V14.01,2013-09-14 10:49:00,
2013-09-14 05:50:00,57.0,50.6,30.00,ENE,57,4.0,5.0,79,0.00,,---,0.00,VWS V14.01,2013-09-14 10:50:00,
2013-09-14 05:51:00,57.0,50.6,30.00,ENE,57,3.0,4.0,79,0.00,,---,0.00,VWS V14.01,2013-09-14 10:51:00,
2013-09-14 05:52:00,57.0,50.9,30.00,ENE,57,3.0,4.0,80,0.00,,---,0.00,VWS V14.01,2013-09-14 10:52:00,
2013-09-14 05:53:00,56.9,50.8,30.00,ENE,57,4.0,4.0,80,0.00,,---,0.00,VWS V14.01,2013-09-14 10:53:00,
2013-09-14 05:55:00,56.9,50.8,30.00,ENE,57,4.0,4.0,80,0.00,,---,0.00,VWS V14.01,2013-09-14 10:55:00,
2013-09-14 05:56:00,56.9,50.8,30.00,ENE,57,4.0,4.0,80,0.00,,---,0.00,VWS V14.01,2013-09-14 10:56:00,
2013-09-14 05:57:00,56.9,50.8,30.00,ENE,57,4.0,4.0,80,0.00,,---,0.00,VWS V14.01,2013-09-14 10:57:00,
2013-09-14 05:58:00,56.7,50.6,30.00,ENE,57,4.0,4.0,80,0.00,,---,0.00,VWS V14.01,2013-09-14 10:58:00,
2013-09-14 06:00:00,56.7,50.6,30.00,ENE,57,5.0,5.0,80,0.00,,---,0.00,VWS V14.01,2013-09-14 11:00:00,
2013-09-14 06:01:00,56.7,50.6,30.00,ENE,57,5.0,5.0,80,0.00,,---,0.00,VWS V14.01,2013-09-14 11:01:00,
2013-09-14 06:02:00,56.7,50.6,30.00,ENE,57,4.0,5.0,80,0.00,,---,0.00,VWS V14.01,2013-09-14 11:02:00,
2013-09-14 06:03:00,56.7,50.6,30.00,ENE,57,3.0,5.0,80,0.00,,---,0.00,VWS V14.01,2013-09-14 11:03:00,
2013-09-14 06:05:00,56.7,50.6,30.00,ENE,57,3.0,5.0,80,0.00,,---,0.00,VWS V14.01,2013-09-14 11:05:00,
2013-09-14 06:06:00,56.7,50.6,30.00,ENE,57,2.0,5.0,80,0.00,,---,0.00,VWS V14.01,2013-09-14 11:06:00,
2013-09-14 06:07:00,56.7,50.6,30.00,ENE,57,0.0,5.0,80,0.00,,---,0.00,VWS V14.01,2013-09-14 11:07:00,
2013-09-14 06:08:00,56.7,50.6,30.00,ENE,57,0.0,5.0,80,0.00,,---,0.00,VWS V14.01,2013-09-14 11:08:00,
2013-09-14 06:10:00,56.7,50.6,30.00,ENE,57,0.0,5.0,80,0.00,,---,0.00,VWS V14.01,2013-09-14 11:10:00,
2013-09-14 06:11:00,56.7,50.6,30.00,ENE,57,0.0,0.0,80,0.00,,---,0.00,VWS V14.01,2013-09-14 11:11:00,
2013-09-14 06:13:00,56.7,50.6,30.00,ENE,57,0.0,0.0,80,0.00,,---,0.00,VWS V14.01,2013-09-14 11:13:00,
2013-09-14 06:15:00,56.7,50.6,30.00,ENE,57,0.0,0.0,80,0.00,,---,0.00,VWS V14.01,2013-09-14 11:15:00,
2013-09-14 06:16:00,56.7,50.6,30.00,ENE,57,0.0,0.0,80,0.00,,---,0.00,VWS V14.01,2013-09-14 11:16:00,
2013-09-14 06:18:00,56.7,50.6,30.00,ENE,57,0.0,0.0,80,0.00,,---,0.00,VWS V14.01,2013-09-14 11:18:00,
2013-09-14 06:20:00,56.7,50.6,30.00,ENE,57,0.0,0.0,80,0.00,,---,0.00,VWS V14.01,2013-09-14 11:20:00,
2013-09-14 06:21:00,56.7,50.6,30.00,ENE,57,0.0,0.0,80,0.00,,---,0.00,VWS V14.01,2013-09-14 11:21:00,
2013-09-14 06:22:00,56.7,50.3,30.00,ENE,57,0.0,0.0,79,0.00,,---,0.00,VWS V14.01,2013-09-14 11:22:00,
2013-09-14 06:23:00,56.7,50.3,30.00,ENE,57,0.0,0.0,79,0.00,,---,0.00,VWS V14.01,2013-09-14 11:23:00,
2013-09-14 06:25:00,56.9,50.5,30.00,ENE,57,5.0,5.0,79,0.00,,---,0.00,VWS V14.01,2013-09-14 11:25:00,
2013-09-14 06:26:00,56.9,50.8,30.00,ENE,57,4.0,5.0,80,0.00,,---,0.00,VWS V14.01,2013-09-14 11:26:00,
2013-09-14 06:27:00,56.9,50.8,30.00,ENE,57,3.0,5.0,80,0.00,,---,0.00,VWS V14.01,2013-09-14 11:27:00,
2013-09-14 06:28:00,56.9,50.8,30.00,ENE,57,4.0,5.0,80,0.00,,---,0.00,VWS V14.01,2013-09-14 11:28:00,
2013-09-14 06:30:00,56.7,50.6,30.00,ENE,57,4.0,5.0,80,0.00,,---,0.00,VWS V14.01,2013-09-14 11:30:00,
2013-09-14 06:31:00,56.7,50.6,30.00,ENE,57,3.0,4.0,80,0.00,,---,0.00,VWS V14.01,2013-09-14 11:31:00,
2013-09-14 06:33:00,56.6,50.5,30.00,ENE,57,3.0,5.0,80,0.00,,---,0.00,VWS V14.01,2013-09-14 11:33:00,
2013-09-14 06:35:00,56.6,50.8,30.00,ENE,57,0.0,5.0,81,0.00,,---,0.00,VWS V14.01,2013-09-14 11:35:00,
2013-09-14 06:36:00,56.6,50.8,30.00,ENE,57,0.0,5.0,81,0.00,,---,0.00,VWS V14.01,2013-09-14 11:36:00,
2013-09-14 06:38:00,56.5,50.8,30.00,ENE,57,0.0,5.0,81,0.00,,---,0.00,VWS V14.01,2013-09-14 11:38:00,
2013-09-14 06:39:00,56.5,50.8,30.00,ENE,57,0.0,5.0,81,0.00,,---,0.00,VWS V14.01,2013-09-14 11:39:00,
2013-09-14 06:40:00,56.5,50.8,30.00,ENE,57,0.0,5.0,81,0.00,,---,0.00,VWS V14.01,2013-09-14 11:40:00,
2013-09-14 06:41:00,56.5,50.8,30.00,ENE,57,0.0,0.0,81,0.00,,---,0.00,VWS V14.01,2013-09-14 11:41:00,
2013-09-14 06:43:00,56.3,50.5,30.00,ENE,57,0.0,0.0,81,0.00,,---,0.00,VWS V14.01,2013-09-14 11:43:00,
2013-09-14 06:44:00,56.3,50.9,30.00,ENE,57,0.0,0.0,82,0.00,,---,0.00,VWS V14.01,2013-09-14 11:44:00,
2013-09-14 06:45:00,56.3,50.9,30.01,ENE,57,0.0,0.0,82,0.00,,---,0.00,VWS V14.01,2013-09-14 11:45:00,
2013-09-14 06:46:00,56.3,50.9,30.01,ENE,57,0.0,0.0,82,0.00,,---,0.00,VWS V14.01,2013-09-14 11:46:00,
2013-09-14 06:48:00,56.3,50.9,30.01,ENE,57,0.0,0.0,82,0.00,,---,0.00,VWS V14.01,2013-09-14 11:48:00,
2013-09-14 06:49:00,56.3,50.9,30.01,ENE,57,0.0,0.0,82,0.00,,---,0.00,VWS V14.01,2013-09-14 11:49:00,
2013-09-14 06:50:00,56.3,50.9,30.01,ENE,57,0.0,0.0,82,0.00,,---,0.00,VWS V14.01,2013-09-14 11:50:00,
2013-09-14 06:51:00,56.3,50.9,30.01,ENE,57,0.0,0.0,82,0.00,,---,0.00,VWS V14.01,2013-09-14 11:51:00,
2013-09-14 06:53:00,56.3,50.9,30.01,ENE,57,0.0,0.0,82,0.00,,---,0.00,VWS V14.01,2013-09-14 11:53:00,
2013-09-14 06:54:00,56.3,50.9,30.01,ENE,57,4.0,5.0,82,0.00,,---,0.00,VWS V14.01,2013-09-14 11:54:00,
2013-09-14 06:55:00,56.3,50.9,30.01,ENE,57,3.0,5.0,82,0.00,,---,0.00,VWS V14.01,2013-09-14 11:55:00,
2013-09-14 06:56:00,56.3,50.9,30.01,ENE,57,3.0,5.0,82,0.00,,---,0.00,VWS V14.01,2013-09-14 11:56:00,
2013-09-14 06:57:00,56.3,50.9,30.01,ENE,57,3.0,5.0,82,0.00,,---,0.00,VWS V14.01,2013-09-14 11:57:00,
2013-09-14 06:58:00,56.3,50.9,30.01,ENE,57,0.0,5.0,82,0.00,,---,0.00,VWS V14.01,2013-09-14 11:58:00,
2013-09-14 06:59:00,56.3,50.9,30.01,ENE,57,0.0,5.0,82,0.00,,---,0.00,VWS V14.01,2013-09-14 11:59:00,
2013-09-14 07:00:00,56.3,50.9,30.01,ENE,57,0.0,5.0,82,0.00,,---,0.00,VWS V14.01,2013-09-14 12:00:00,
2013-09-14 07:01:00,56.3,50.9,30.01,ENE,57,0.0,0.0,82,0.00,,---,0.00,VWS V14.01,2013-09-14 12:01:00,
2013-09-14 07:02:00,56.3,50.9,30.01,ENE,57,0.0,0.0,82,0.00,,---,0.00,VWS V14.01,2013-09-14 12:02:00,
2013-09-14 07:03:00,56.3,50.9,30.01,ENE,57,0.0,0.0,82,0.00,,---,0.00,VWS V14.01,2013-09-14 12:03:00,
2013-09-14 07:04:00,56.3,50.9,30.01,ENE,57,0.0,0.0,82,0.00,,---,0.00,VWS V14.01,2013-09-14 12:04:00,
2013-09-14 07:05:00,56.2,50.8,30.01,ENE,57,0.0,0.0,82,0.00,,---,0.00,VWS V14.01,2013-09-14 12:05:00,
2013-09-14 07:06:00,56.2,50.8,30.01,ENE,57,0.0,0.0,82,0.00,,---,0.00,VWS V14.01,2013-09-14 12:06:00,
2013-09-14 07:07:00,56.2,50.8,30.01,ENE,57,0.0,0.0,82,0.00,,---,0.00,VWS V14.01,2013-09-14 12:07:00,
2013-09-14 07:08:00,56.2,50.8,30.01,ENE,57,0.0,0.0,82,0.00,,---,0.00,VWS V14.01,2013-09-14 12:08:00,
2013-09-14 07:09:00,56.2,50.8,30.01,ENE,57,0.0,0.0,82,0.00,,---,0.00,VWS V14.01,2013-09-14 12:09:00,
2013-09-14 07:10:00,56.2,50.8,30.01,ENE,57,0.0,0.0,82,0.00,,---,0.00,VWS V14.01,2013-09-14 12:10:00,
2013-09-14 07:11:00,56.2,50.8,30.01,ENE,57,0.0,0.0,82,0.00,,---,0.00,VWS V14.01,2013-09-14 12:11:00,
2013-09-14 07:12:00,56.2,50.8,30.01,ENE,57,0.0,0.0,82,0.00,,---,0.00,VWS V14.01,2013-09-14 12:12:00,
2013-09-14 07:13:00,56.2,50.8,30.01,ENE,57,0.0,0.0,82,0.00,,---,0.00,VWS V14.01,2013-09-14 12:13:00,
2013-09-14 07:14:00,56.2,50.8,30.01,ENE,57,0.0,0.0,82,0.00,,---,0.00,VWS V14.01,2013-09-14 12:14:00,
2013-09-14 07:15:00,56.2,50.8,30.02,ENE,57,0.0,0.0,82,0.00,,---,0.00,VWS V14.01,2013-09-14 12:15:00,
2013-09-14 07:16:00,56.2,50.8,30.02,ENE,57,0.0,0.0,82,0.00,,---,0.00,VWS V14.01,2013-09-14 12:16:00,
2013-09-14 07:17:00,56.2,50.8,30.02,ENE,57,0.0,0.0,82,0.00,,---,0.00,VWS V14.01,2013-09-14 12:17:00,
2013-09-14 07:18:00,56.3,50.9,30.02,ENE,57,0.0,0.0,82,0.00,,---,0.00,VWS V14.01,2013-09-14 12:18:00,
2013-09-14 07:19:00,56.3,50.9,30.02,ENE,57,0.0,0.0,82,0.00,,---,0.00,VWS V14.01,2013-09-14 12:19:00,
2013-09-14 07:20:00,56.3,50.9,30.02,ENE,57,0.0,0.0,82,0.00,,---,0.00,VWS V14.01,2013-09-14 12:20:00,
2013-09-14 07:21:00,56.3,50.9,30.02,ENE,57,0.0,0.0,82,0.00,,---,0.00,VWS V14.01,2013-09-14 12:21:00,
2013-09-14 07:23:00,56.3,50.9,30.02,ENE,57,0.0,0.0,82,0.00,,---,0.00,VWS V14.01,2013-09-14 12:23:00,
2013-09-14 07:24:00,56.3,50.9,30.02,ENE,57,0.0,0.0,82,0.00,,---,0.00,VWS V14.01,2013-09-14 12:24:00,
2013-09-14 07:25:00,56.3,50.9,30.02,ENE,57,0.0,0.0,82,0.00,,---,0.00,VWS V14.01,2013-09-14 12:25:00,
2013-09-14 07:26:00,56.3,50.9,30.02,ENE,57,0.0,0.0,82,0.00,,---,0.00,VWS V14.01,2013-09-14 12:26:00,
2013-09-14 07:28:00,56.5,51.1,30.02,ENE,57,0.0,0.0,82,0.00,,---,0.00,VWS V14.01,2013-09-14 12:28:00,
2013-09-14 07:29:00,56.5,51.1,30.02,ENE,57,0.0,0.0,82,0.00,,---,0.00,VWS V14.01,2013-09-14 12:29:00,
2013-09-14 07:30:00,56.5,51.1,30.02,ENE,57,0.0,0.0,82,0.00,,---,0.00,VWS V14.01,2013-09-14 12:30:00,
2013-09-14 07:31:00,56.5,51.1,30.02,ENE,57,0.0,0.0,82,0.00,,---,0.00,VWS V14.01,2013-09-14 12:31:00,
2013-09-14 07:33:00,56.5,51.1,30.02,ENE,57,0.0,0.0,82,0.00,,---,0.00,VWS V14.01,2013-09-14 12:33:00,
2013-09-14 07:34:00,56.5,51.1,30.02,ENE,57,0.0,0.0,82,0.00,,---,0.00,VWS V14.01,2013-09-14 12:34:00,
2013-09-14 07:35:00,56.5,51.1,30.02,ENE,57,0.0,0.0,82,0.00,,---,0.00,VWS V14.01,2013-09-14 12:35:00,
2013-09-14 07:36:00,56.5,51.1,30.02,ENE,57,0.0,0.0,82,0.00,,---,0.00,VWS V14.01,2013-09-14 12:36:00,
2013-09-14 07:39:00,56.5,51.4,30.02,ENE,57,0.0,0.0,83,0.00,,---,0.00,VWS V14.01,2013-09-14 12:39:00,
2013-09-14 07:40:00,56.5,51.4,30.02,ENE,57,0.0,0.0,83,0.00,,---,0.00,VWS V14.01,2013-09-14 12:40:00,
2013-09-14 07:41:00,56.5,51.4,30.02,ENE,57,0.0,0.0,83,0.00,,---,0.00,VWS V14.01,2013-09-14 12:41:00,
2013-09-14 07:44:00,56.5,51.4,30.02,ENE,57,0.0,0.0,83,0.00,,---,0.00,VWS V14.01,2013-09-14 12:44:00,
2013-09-14 07:46:00,56.5,51.7,30.02,ENE,57,0.0,0.0,84,0.00,,---,0.00,VWS V14.01,2013-09-14 12:46:00,
2013-09-14 07:49:00,56.5,51.7,30.02,ENE,57,0.0,0.0,84,0.00,,---,0.00,VWS V14.01,2013-09-14 12:49:00,
2013-09-14 07:51:00,56.5,51.7,30.02,ENE,57,0.0,0.0,84,0.00,,---,0.00,VWS V14.01,2013-09-14 12:51:00,
2013-09-14 07:54:00,56.6,51.8,30.02,ENE,57,0.0,0.0,84,0.00,,---,0.00,VWS V14.01,2013-09-14 12:54:00,
2013-09-14 07:56:00,56.6,51.8,30.02,ENE,57,4.0,4.0,84,0.00,,---,0.00,VWS V14.01,2013-09-14 12:56:00,
2013-09-14 07:59:00,56.7,51.9,30.02,ENE,57,4.0,5.0,84,0.00,,---,0.00,VWS V14.01,2013-09-14 12:59:00,
2013-09-14 08:01:00,56.7,51.9,30.02,ENE,57,4.0,4.0,84,0.00,,---,0.00,VWS V14.01,2013-09-14 13:01:00,
2013-09-14 08:02:00,56.7,51.9,30.02,ENE,57,3.0,4.0,84,0.00,,---,0.00,VWS V14.01,2013-09-14 13:02:00,
2013-09-14 08:04:00,56.7,51.9,30.02,ENE,57,3.0,4.0,84,0.00,,---,0.00,VWS V14.01,2013-09-14 13:04:00,
2013-09-14 08:05:00,56.7,51.9,30.02,ENE,57,2.0,4.0,84,0.00,,---,0.00,VWS V14.01,2013-09-14 13:05:00,
2013-09-14 08:06:00,56.7,51.9,30.02,ENE,57,3.0,4.0,84,0.00,,---,0.00,VWS V14.01,2013-09-14 13:06:00,
2013-09-14 08:07:00,56.7,51.9,30.02,ENE,57,2.0,4.0,84,0.00,,---,0.00,VWS V14.01,2013-09-14 13:07:00,
2013-09-14 08:09:00,56.7,51.9,30.02,ENE,57,0.0,4.0,84,0.00,,---,0.00,VWS V14.01,2013-09-14 13:09:00,
2013-09-14 08:10:00,56.7,51.9,30.02,ENE,57,0.0,4.0,84,0.00,,---,0.00,VWS V14.01,2013-09-14 13:10:00,
2013-09-14 08:11:00,56.7,51.9,30.02,ENE,57,0.0,0.0,84,0.00,,---,0.00,VWS V14.01,2013-09-14 13:11:00,
2013-09-14 08:12:00,56.7,51.9,30.02,ENE,57,0.0,0.0,84,0.00,,---,0.00,VWS V14.01,2013-09-14 13:12:00,
2013-09-14 08:13:00,56.7,51.9,30.02,ENE,57,0.0,0.0,84,0.00,,---,0.00,VWS V14.01,2013-09-14 13:13:00,
2013-09-14 08:14:00,56.7,51.9,30.02,ENE,57,0.0,0.0,84,0.00,,---,0.00,VWS V14.01,2013-09-14 13:14:00,
2013-09-14 08:15:00,56.7,51.9,30.02,ENE,57,0.0,0.0,84,0.00,,---,0.00,VWS V14.01,2013-09-14 13:15:00,
2013-09-14 08:16:00,56.9,52.1,30.02,ENE,57,0.0,0.0,84,0.00,,---,0.00,VWS V14.01,2013-09-14 13:16:00,
2013-09-14 08:17:00,56.9,52.1,30.02,ENE,57,0.0,0.0,84,0.00,,---,0.00,VWS V14.01,2013-09-14 13:17:00,
2013-09-14 08:18:00,56.9,52.1,30.02,ENE,57,0.0,0.0,84,0.00,,---,0.00,VWS V14.01,2013-09-14 13:18:00,
2013-09-14 08:19:00,56.9,52.1,30.02,ENE,57,0.0,0.0,84,0.00,,---,0.00,VWS V14.01,2013-09-14 13:19:00,
2013-09-14 08:20:00,56.9,52.1,30.02,ENE,57,0.0,0.0,84,0.00,,---,0.00,VWS V14.01,2013-09-14 13:20:00,
2013-09-14 08:21:00,56.9,52.1,30.02,ENE,57,0.0,0.0,84,0.00,,---,0.00,VWS V14.01,2013-09-14 13:21:00,
2013-09-14 08:22:00,57.0,52.2,30.02,ENE,57,0.0,0.0,84,0.00,,---,0.00,VWS V14.01,2013-09-14 13:22:00,
2013-09-14 08:24:00,57.0,52.2,30.02,ENE,57,0.0,0.0,84,0.00,,---,0.00,VWS V14.01,2013-09-14 13:24:00,
2013-09-14 08:25:00,57.0,52.2,30.02,ENE,57,0.0,0.0,84,0.00,,---,0.00,VWS V14.01,2013-09-14 13:25:00,
2013-09-14 08:26:00,57.0,52.2,30.02,ENE,57,0.0,0.0,84,0.00,,---,0.00,VWS V14.01,2013-09-14 13:26:00,
2013-09-14 08:27:00,57.0,52.2,30.02,ENE,57,0.0,0.0,84,0.00,,---,0.00,VWS V14.01,2013-09-14 13:27:00,
2013-09-14 08:29:00,57.2,52.4,30.02,ENE,57,0.0,0.0,84,0.00,,---,0.00,VWS V14.01,2013-09-14 13:29:00,
2013-09-14 08:30:00,57.2,52.4,30.02,ENE,57,0.0,0.0,84,0.00,,---,0.00,VWS V14.01,2013-09-14 13:30:00,
2013-09-14 08:31:00,57.2,52.4,30.02,ENE,57,0.0,0.0,84,0.00,,---,0.00,VWS V14.01,2013-09-14 13:31:00,
2013-09-14 08:32:00,57.2,52.4,30.02,ENE,57,0.0,0.0,84,0.00,,---,0.00,VWS V14.01,2013-09-14 13:32:00,
2013-09-14 08:34:00,57.3,52.5,30.02,ENE,57,4.0,4.0,84,0.00,,---,0.00,VWS V14.01,2013-09-14 13:34:00,
2013-09-14 08:36:00,57.3,52.5,30.02,ENE,57,2.0,4.0,84,0.00,,---,0.00,VWS V14.01,2013-09-14 13:36:00,
2013-09-14 08:37:00,57.5,52.7,30.02,ENE,57,4.0,4.0,84,0.00,,---,0.00,VWS V14.01,2013-09-14 13:37:00,
2013-09-14 08:39:00,57.5,52.7,30.02,ENE,57,4.0,4.0,84,0.00,,---,0.00,VWS V14.01,2013-09-14 13:39:00,
2013-09-14 08:40:00,57.5,52.7,30.02,ENE,57,4.0,4.0,84,0.00,,---,0.00,VWS V14.01,2013-09-14 13:40:00,
2013-09-14 08:41:00,57.5,52.7,30.02,ENE,57,3.0,4.0,84,0.00,,---,0.00,VWS V14.01,2013-09-14 13:41:00,
2013-09-14 08:42:00,57.6,52.8,30.02,ENE,57,2.0,4.0,84,0.00,,---,0.00,VWS V14.01,2013-09-14 13:42:00,
2013-09-14 08:43:00,57.6,52.8,30.02,ENE,57,4.0,4.0,84,0.00,,---,0.00,VWS V14.01,2013-09-14 13:43:00,
2013-09-14 08:44:00,57.8,53.0,30.02,ENE,58,2.0,4.0,84,0.00,,---,0.00,VWS V14.01,2013-09-14 13:44:00,
2013-09-14 08:45:00,58.0,53.2,30.02,ENE,58,3.0,5.0,84,0.00,,---,0.00,VWS V14.01,2013-09-14 13:45:00,
2013-09-14 08:46:00,58.1,53.3,30.02,ENE,59,3.0,5.0,84,0.00,,---,0.00,VWS V14.01,2013-09-14 13:46:00,
2013-09-14 08:47:00,58.1,53.3,30.02,ENE,59,3.0,5.0,84,0.00,,---,0.00,VWS V14.01,2013-09-14 13:47:00,
2013-09-14 08:48:00,58.4,53.6,30.02,ENE,59,2.0,5.0,84,0.00,,---,0.00,VWS V14.01,2013-09-14 13:48:00,
2013-09-14 08:49:00,58.6,53.8,30.02,ENE,59,4.0,5.0,84,0.00,,---,0.00,VWS V14.01,2013-09-14 13:49:00,
2013-09-14 08:50:00,58.7,53.9,30.02,ENE,59,3.0,5.0,84,0.00,,---,0.00,VWS V14.01,2013-09-14 13:50:00,
2013-09-14 08:51:00,58.9,54.1,30.02,ENE,59,3.0,4.0,84,0.00,,---,0.00,VWS V14.01,2013-09-14 13:51:00,
2013-09-14 08:52:00,59.0,54.2,30.02,ENE,59,4.0,4.0,84,0.00,,---,0.00,VWS V14.01,2013-09-14 13:52:00,
2013-09-14 08:53:00,59.0,54.2,30.02,ENE,60,3.0,4.0,84,0.00,,---,0.00,VWS V14.01,2013-09-14 13:53:00,
2013-09-14 08:54:00,59.3,54.2,30.02,ENE,65,4.0,5.0,83,0.00,,---,0.00,VWS V14.01,2013-09-14 13:54:00,
2013-09-14 08:55:00,59.3,54.2,30.02,ENE,65,3.0,5.0,83,0.00,,---,0.00,VWS V14.01,2013-09-14 13:55:00,
2013-09-14 08:56:00,59.6,54.1,30.02,ENE,71,4.0,5.0,82,0.00,,---,0.00,VWS V14.01,2013-09-14 13:56:00,
2013-09-14 08:57:00,59.8,54.0,30.02,ENE,74,4.0,6.0,81,0.00,,---,0.00,VWS V14.01,2013-09-14 13:57:00,
2013-09-14 08:58:00,59.8,54.0,30.02,ENE,74,3.0,6.0,81,0.00,,---,0.00,VWS V14.01,2013-09-14 13:58:00,
2013-09-14 08:59:00,60.1,53.9,30.02,ENE,74,3.0,6.0,80,0.00,,---,0.00,VWS V14.01,2013-09-14 13:59:00,
2013-09-14 09:01:00,60.5,54.3,30.01,ENE,74,3.0,3.0,80,0.00,,---,0.00,VWS V14.01,2013-09-14 14:01:00,
2013-09-14 09:02:00,60.7,54.2,30.01,ENE,74,3.0,4.0,79,0.00,,---,0.00,VWS V14.01,2013-09-14 14:02:00,
2013-09-14 09:03:00,60.9,54.3,30.01,ENE,74,0.0,4.0,79,0.00,,---,0.00,VWS V14.01,2013-09-14 14:03:00,
2013-09-14 09:04:00,61.0,54.1,30.01,ENE,76,0.0,4.0,78,0.00,,---,0.00,VWS V14.01,2013-09-14 14:04:00,
2013-09-14 09:06:00,61.2,53.2,30.01,ESE,117,7.0,7.0,75,0.00,,---,0.00,VWS V14.01,2013-09-14 14:06:00,
2013-09-14 09:07:00,61.3,52.6,30.01,ESE,117,4.0,9.0,73,0.00,,---,0.00,VWS V14.01,2013-09-14 14:07:00,
2013-09-14 09:08:00,61.6,52.9,30.01,East,95,6.0,9.0,73,0.00,,---,0.00,VWS V14.01,2013-09-14 14:08:00,
2013-09-14 09:09:00,61.8,52.7,30.01,ESE,110,9.0,9.0,72,0.00,,---,0.00,VWS V14.01,2013-09-14 14:09:00,
2013-09-14 09:11:00,62.1,52.2,30.01,ESE,114,9.0,9.0,70,0.00,,---,0.00,VWS V14.01,2013-09-14 14:11:00,
2013-09-14 09:12:00,62.3,52.0,30.01,ESE,113,5.0,9.0,69,0.00,,---,0.00,VWS V14.01,2013-09-14 14:12:00,
2013-09-14 09:13:00,62.3,52.4,30.01,ESE,113,5.0,9.0,70,0.00,,---,0.00,VWS V14.01,2013-09-14 14:13:00,
2013-09-14 09:14:00,62.4,52.1,30.01,ESE,119,8.0,11.0,69,0.00,,---,0.00,VWS V14.01,2013-09-14 14:14:00,
2013-09-14 09:16:00,62.7,52.4,30.02,ESE,116,6.0,11.0,69,0.00,,---,0.00,VWS V14.01,2013-09-14 14:16:00,
2013-09-14 09:17:00,62.9,52.2,30.02,ESE,115,7.0,11.0,68,0.00,,---,0.00,VWS V14.01,2013-09-14 14:17:00,
2013-09-14 09:18:00,63.1,52.4,30.02,ESE,111,9.0,11.0,68,0.00,,---,0.00,VWS V14.01,2013-09-14 14:18:00,
2013-09-14 09:19:00,63.1,52.0,30.02,East,101,5.0,11.0,67,0.00,,---,0.00,VWS V14.01,2013-09-14 14:19:00,
2013-09-14 09:21:00,63.4,52.3,30.02,ESE,115,6.0,10.0,67,0.00,,---,0.00,VWS V14.01,2013-09-14 14:21:00,
2013-09-14 09:22:00,63.4,52.3,30.02,ESE,120,6.0,10.0,67,0.00,,---,0.00,VWS V14.01,2013-09-14 14:22:00,
2013-09-14 09:23:00,63.5,52.0,30.02,ESE,110,6.0,10.0,66,0.00,,---,0.00,VWS V14.01,2013-09-14 14:23:00,
2013-09-14 09:24:00,63.5,51.5,30.02,ESE,113,6.0,10.0,65,0.00,,---,0.00,VWS V14.01,2013-09-14 14:24:00,
2013-09-14 09:27:00,63.5,51.5,30.02,SE,133,11.0,11.0,65,0.00,,---,0.00,VWS V14.01,2013-09-14 14:27:00,
2013-09-14 09:28:00,63.7,51.7,30.02,ESE,117,6.0,12.0,65,0.00,,---,0.00,VWS V14.01,2013-09-14 14:28:00,
2013-09-14 09:29:00,63.7,51.7,30.02,ESE,117,5.0,12.0,65,0.00,,---,0.00,VWS V14.01,2013-09-14 14:29:00,
2013-09-14 09:32:00,64.0,52.4,30.01,ESE,118,2.0,4.0,66,0.00,,---,0.00,VWS V14.01,2013-09-14 14:32:00,
2013-09-14 09:33:00,64.2,52.6,30.01,ESE,119,5.0,6.0,66,0.00,,---,0.00,VWS V14.01,2013-09-14 14:33:00,
2013-09-14 09:34:00,64.2,51.8,30.01,ESE,121,10.0,11.0,64,0.00,,---,0.00,VWS V14.01,2013-09-14 14:34:00,
2013-09-14 09:35:00,64.2,51.8,30.01,SE,144,6.0,11.0,64,0.00,,---,0.00,VWS V14.01,2013-09-14 14:35:00,
2013-09-14 09:37:00,64.5,51.6,30.01,SE,141,6.0,11.0,63,0.00,,---,0.00,VWS V14.01,2013-09-14 14:37:00,
2013-09-14 09:38:00,64.5,51.6,30.01,SE,133,6.0,11.0,63,0.00,,---,0.00,VWS V14.01,2013-09-14 14:38:00,
2013-09-14 09:39:00,64.5,51.2,30.01,SE,128,8.0,11.0,62,0.00,,---,0.00,VWS V14.01,2013-09-14 14:39:00,
2013-09-14 09:40:00,64.7,51.4,30.01,SE,128,10.0,11.0,62,0.00,,---,0.00,VWS V14.01,2013-09-14 14:40:00,
2013-09-14 09:42:00,64.8,51.5,30.01,SE,134,9.0,10.0,62,0.00,,---,0.00,VWS V14.01,2013-09-14 14:42:00,
2013-09-14 09:43:00,65.0,51.7,30.01,SE,140,3.0,10.0,62,0.00,,---,0.00,VWS V14.01,2013-09-14 14:43:00,
2013-09-14 09:44:00,65.2,52.3,30.01,ESE,114,7.0,10.0,63,0.00,,---,0.00,VWS V14.01,2013-09-14 14:44:00,
2013-09-14 09:45:00,65.3,52.4,30.01,SE,136,12.0,12.0,63,0.00,,---,0.00,VWS V14.01,2013-09-14 14:45:00,
2013-09-14 09:47:00,65.5,51.7,30.01,SSE,152,9.0,12.0,61,0.00,,---,0.00,VWS V14.01,2013-09-14 14:47:00,
2013-09-14 09:48:00,65.6,51.8,30.01,SSE,151,2.0,12.0,61,0.00,,---,0.00,VWS V14.01,2013-09-14 14:48:00,
2013-09-14 09:49:00,65.8,52.0,30.01,SE,132,4.0,12.0,61,0.00,,---,0.00,VWS V14.01,2013-09-14 14:49:00,
2013-09-14 09:50:00,66.0,52.2,30.01,SSE,150,10.0,12.0,61,0.00,,---,0.00,VWS V14.01,2013-09-14 14:50:00,
2013-09-14 09:52:00,66.1,51.4,30.01,SE,139,9.0,13.0,59,0.00,,---,0.00,VWS V14.01,2013-09-14 14:52:00,
2013-09-14 09:53:00,66.3,51.6,30.01,SSE,150,11.0,13.0,59,0.00,,---,0.00,VWS V14.01,2013-09-14 14:53:00,
2013-09-14 09:54:00,66.4,51.7,30.01,SE,124,7.0,13.0,59,0.00,,---,0.00,VWS V14.01,2013-09-14 14:54:00,
2013-09-14 09:55:00,66.4,51.7,30.01,SE,124,7.0,13.0,59,0.00,,---,0.00,VWS V14.01,2013-09-14 14:55:00,
2013-09-14 09:57:00,66.6,52.3,30.01,SE,132,6.0,13.0,60,0.00,,---,0.00,VWS V14.01,2013-09-14 14:57:00,
2013-09-14 09:58:00,66.8,52.0,30.01,SE,128,9.0,13.0,59,0.00,,---,0.00,VWS V14.01,2013-09-14 14:58:00,
2013-09-14 09:59:00,66.8,51.6,30.01,SE,140,8.0,13.0,58,0.00,,---,0.00,VWS V14.01,2013-09-14 14:59:00,
2013-09-14 10:01:00,66.9,51.7,30.01,SE,135,7.0,7.0,58,0.00,,---,0.00,VWS V14.01,2013-09-14 15:01:00,
2013-09-14 10:02:00,67.1,51.8,30.01,ESE,123,7.0,10.0,58,0.00,,---,0.00,VWS V14.01,2013-09-14 15:02:00,
2013-09-14 10:03:00,67.4,52.6,30.01,SE,144,8.0,10.0,59,0.00,,---,0.00,VWS V14.01,2013-09-14 15:03:00,
2013-09-14 10:04:00,67.4,52.6,30.01,SE,124,9.0,10.0,59,0.00,,---,0.00,VWS V14.01,2013-09-14 15:04:00,
2013-09-14 10:06:00,67.6,51.8,30.01,SE,138,10.0,12.0,57,0.00,,---,0.00,VWS V14.01,2013-09-14 15:06:00,
2013-09-14 10:07:00,67.8,52.5,30.01,ESE,115,8.0,12.0,58,0.00,,---,0.00,VWS V14.01,2013-09-14 15:07:00,
2013-09-14 10:08:00,67.9,52.1,30.01,SE,128,5.0,12.0,57,0.00,,---,0.00,VWS V14.01,2013-09-14 15:08:00,
2013-09-14 10:09:00,67.9,52.1,30.01,SE,128,7.0,12.0,57,0.00,,---,0.00,VWS V14.01,2013-09-14 15:09:00,
2013-09-14 10:11:00,68.3,52.5,30.01,SE,128,6.0,6.0,57,0.00,,---,0.00,VWS V14.01,2013-09-14 15:11:00,
2013-09-14 10:12:00,68.4,52.6,30.01,SSE,148,11.0,13.0,57,0.00,,---,0.00,VWS V14.01,2013-09-14 15:12:00,
2013-09-14 10:13:00,68.6,52.8,30.01,ESE,121,10.0,13.0,57,0.00,,---,0.00,VWS V14.01,2013-09-14 15:13:00,
2013-09-14 10:14:00,68.6,52.8,30.01,ESE,122,7.0,13.0,57,0.00,,---,0.00,VWS V14.01,2013-09-14 15:14:00,
2013-09-14 10:16:00,68.9,52.6,30.00,SE,140,5.0,13.0,56,0.00,,---,0.00,VWS V14.01,2013-09-14 15:16:00,
2013-09-14 10:17:00,69.1,52.8,30.00,SE,138,9.0,13.0,56,0.00,,---,0.00,VWS V14.01,2013-09-14 15:17:00,
2013-09-14 10:19:00,69.1,52.8,30.00,SE,143,16.0,16.0,56,0.00,,---,0.00,VWS V14.01,2013-09-14 15:19:00,
2013-09-14 10:21:00,69.3,52.0,30.00,SE,141,10.0,11.0,54,0.00,,---,0.00,VWS V14.01,2013-09-14 15:21:00,
2013-09-14 10:22:00,69.3,52.0,30.00,SE,137,5.0,13.0,54,0.00,,---,0.00,VWS V14.01,2013-09-14 15:22:00,
2013-09-14 10:24:00,69.4,52.0,30.00,SSE,147,3.0,13.0,54,0.00,,---,0.00,VWS V14.01,2013-09-14 15:24:00,
2013-09-14 10:26:00,69.8,52.9,30.00,SSE,151,5.0,13.0,55,0.00,,---,0.00,VWS V14.01,2013-09-14 15:26:00,
2013-09-14 10:27:00,69.9,52.5,30.00,SE,138,6.0,13.0,54,0.00,,---,0.00,VWS V14.01,2013-09-14 15:27:00,
2013-09-14 10:29:00,70.1,53.2,30.00,SE,145,12.0,13.0,55,0.00,,---,0.00,VWS V14.01,2013-09-14 15:29:00,
2013-09-14 10:30:00,69.9,52.0,30.00,SE,142,10.0,14.0,53,0.00,,---,0.00,VWS V14.01,2013-09-14 15:30:00,
2013-09-14 10:31:00,69.9,52.0,30.00,SE,130,9.0,10.0,53,0.00,,---,0.00,VWS V14.01,2013-09-14 15:31:00,
2013-09-14 10:32:00,70.1,52.2,30.00,SE,130,12.0,14.0,53,0.00,,---,0.00,VWS V14.01,2013-09-14 15:32:00,
2013-09-14 10:33:00,70.1,52.2,30.00,SE,128,13.0,14.0,53,0.00,,---,0.00,VWS V14.01,2013-09-14 15:33:00,
2013-09-14 10:34:00,70.1,52.7,30.00,SE,132,12.0,14.0,54,0.00,,---,0.00,VWS V14.01,2013-09-14 15:34:00,
2013-09-14 10:36:00,70.3,53.4,30.00,SSE,153,7.0,14.0,55,0.00,,---,0.00,VWS V14.01,2013-09-14 15:36:00,
2013-09-14 10:37:00,70.4,52.5,30.00,SE,134,6.0,14.0,53,0.00,,---,0.00,VWS V14.01,2013-09-14 15:37:00,
2013-09-14 10:38:00,70.4,52.5,30.00,SSE,150,7.0,14.0,53,0.00,,---,0.00,VWS V14.01,2013-09-14 15:38:00,
2013-09-14 10:39:00,70.4,53.0,30.00,SSE,149,11.0,14.0,54,0.00,,---,0.00,VWS V14.01,2013-09-14 15:39:00,
2013-09-14 10:41:00,70.8,53.3,30.00,SSE,155,4.0,11.0,54,0.00,,---,0.00,VWS V14.01,2013-09-14 15:41:00,
2013-09-14 10:43:00,70.8,52.8,30.00,SSE,157,10.0,13.0,53,0.00,,---,0.00,VWS V14.01,2013-09-14 15:43:00,
2013-09-14 10:44:00,70.8,52.3,30.00,SSE,160,15.0,15.0,52,0.00,,---,0.00,VWS V14.01,2013-09-14 15:44:00,
2013-09-14 10:46:00,70.9,52.9,30.00,SE,132,11.0,15.0,53,0.00,,---,0.00,VWS V14.01,2013-09-14 15:46:00,
2013-09-14 10:48:00,71.1,53.1,30.00,SE,140,6.0,15.0,53,0.00,,---,0.00,VWS V14.01,2013-09-14 15:48:00,
2013-09-14 10:49:00,71.1,53.1,30.00,SE,146,10.0,15.0,53,0.00,,---,0.00,VWS V14.01,2013-09-14 15:49:00,
2013-09-14 10:51:00,71.5,54.0,30.00,SSE,152,5.0,13.0,54,0.00,,---,0.00,VWS V14.01,2013-09-14 15:51:00,
2013-09-14 10:52:00,71.5,54.0,30.00,SSE,152,3.0,13.0,54,0.00,,---,0.00,VWS V14.01,2013-09-14 15:52:00,
2013-09-14 10:53:00,71.6,53.6,30.00,SSE,153,6.0,13.0,53,0.00,,---,0.00,VWS V14.01,2013-09-14 15:53:00,
2013-09-14 10:54:00,71.8,54.3,30.00,SSE,155,5.0,13.0,54,0.00,,---,0.00,VWS V14.01,2013-09-14 15:54:00,
2013-09-14 10:57:00,72.1,55.1,30.00,SE,145,11.0,14.0,55,0.00,,---,0.00,VWS V14.01,2013-09-14 15:57:00,
2013-09-14 10:58:00,72.3,54.7,30.00,SSE,153,2.0,14.0,54,0.00,,---,0.00,VWS V14.01,2013-09-14 15:58:00,
2013-09-14 10:59:00,72.3,53.7,30.00,SSE,155,0.0,14.0,52,0.00,,---,0.00,VWS V14.01,2013-09-14 15:59:00,
2013-09-14 11:00:00,72.5,54.4,30.00,SSE,153,2.0,14.0,53,0.00,,---,0.00,VWS V14.01,2013-09-14 16:00:00,
2013-09-14 11:02:00,72.5,53.9,29.99,SSE,150,10.0,15.0,52,0.00,,---,0.00,VWS V14.01,2013-09-14 16:02:00,
2013-09-14 11:03:00,72.3,53.7,29.99,SE,136,9.0,15.0,52,0.00,,---,0.00,VWS V14.01,2013-09-14 16:03:00,
2013-09-14 11:04:00,72.5,54.4,29.99,SE,144,12.0,15.0,53,0.00,,---,0.00,VWS V14.01,2013-09-14 16:04:00,
2013-09-14 11:05:00,72.5,54.4,29.99,SSE,149,6.0,15.0,53,0.00,,---,0.00,VWS V14.01,2013-09-14 16:05:00,
2013-09-14 11:07:00,72.7,54.6,29.99,SSE,150,10.0,15.0,53,0.00,,---,0.00,VWS V14.01,2013-09-14 16:07:00,
2013-09-14 11:08:00,72.8,54.7,29.99,SSE,151,10.0,15.0,53,0.00,,---,0.00,VWS V14.01,2013-09-14 16:08:00,
2013-09-14 11:09:00,72.8,53.6,29.99,SSE,147,9.0,15.0,51,0.00,,---,0.00,VWS V14.01,2013-09-14 16:09:00,
2013-09-14 11:10:00,72.8,53.6,29.99,SSE,155,4.0,15.0,51,0.00,,---,0.00,VWS V14.01,2013-09-14 16:10:00,
2013-09-14 11:12:00,73.0,54.9,29.99,SSE,156,6.0,7.0,53,0.00,,---,0.00,VWS V14.01,2013-09-14 16:12:00,
2013-09-14 11:13:00,73.2,55.1,29.99,SSE,157,4.0,7.0,53,0.00,,---,0.00,VWS V14.01,2013-09-14 16:13:00,
2013-09-14 11:14:00,73.2,55.1,29.99,SSE,157,4.0,11.0,53,0.00,,---,0.00,VWS V14.01,2013-09-14 16:14:00,
2013-09-14 11:15:00,73.2,55.1,29.99,SSE,157,5.0,11.0,53,0.00,,---,0.00,VWS V14.01,2013-09-14 16:15:00,
2013-09-14 11:17:00,73.3,54.6,29.99,South,169,1.0,13.0,52,0.00,,---,0.00,VWS V14.01,2013-09-14 16:17:00,
2013-09-14 11:18:00,73.2,54.0,29.99,SSE,149,7.0,13.0,51,0.00,,---,0.00,VWS V14.01,2013-09-14 16:18:00,
2013-09-14 11:19:00,73.3,55.2,29.99,SSE,148,6.0,13.0,53,0.00,,---,0.00,VWS V14.01,2013-09-14 16:19:00,
2013-09-14 11:20:00,73.3,55.2,29.99,SSE,148,6.0,13.0,53,0.00,,---,0.00,VWS V14.01,2013-09-14 16:20:00,
2013-09-14 11:22:00,73.3,54.1,29.99,SSE,167,3.0,6.0,51,0.00,,---,0.00,VWS V14.01,2013-09-14 16:22:00,
2013-09-14 11:23:00,73.3,54.1,29.99,South,171,3.0,6.0,51,0.00,,---,0.00,VWS V14.01,2013-09-14 16:23:00,
2013-09-14 11:24:00,73.5,55.9,29.99,SSE,161,2.0,6.0,54,0.00,,---,0.00,VWS V14.01,2013-09-14 16:24:00,
2013-09-14 11:25:00,73.5,55.9,29.99,SSE,161,4.0,6.0,54,0.00,,---,0.00,VWS V14.01,2013-09-14 16:25:00,
2013-09-14 11:27:00,73.3,54.1,29.99,SSE,149,6.0,12.0,51,0.00,,---,0.00,VWS V14.01,2013-09-14 16:27:00,
2013-09-14 11:28:00,73.3,54.1,29.99,SSE,149,1.0,12.0,51,0.00,,---,0.00,VWS V14.01,2013-09-14 16:28:00,
2013-09-14 11:29:00,73.5,54.8,29.99,SSE,152,0.0,12.0,52,0.00,,---,0.00,VWS V14.01,2013-09-14 16:29:00,
2013-09-14 11:30:00,73.5,55.3,29.98,South,176,0.0,12.0,53,0.00,,---,0.00,VWS V14.01,2013-09-14 16:30:00,
2013-09-14 11:33:00,73.9,54.7,29.98,South,169,4.0,12.0,51,0.00,,---,0.00,VWS V14.01,2013-09-14 16:33:00,
2013-09-14 11:34:00,74.0,54.7,29.98,SSE,153,0.0,12.0,51,0.00,,---,0.00,VWS V14.01,2013-09-14 16:34:00,
2013-09-14 11:35:00,74.0,54.7,29.98,SSE,153,0.0,12.0,51,0.00,,---,0.00,VWS V14.01,2013-09-14 16:35:00,
2013-09-14 11:38:00,74.0,54.2,29.98,SE,140,12.0,15.0,50,0.00,,---,0.00,VWS V14.01,2013-09-14 16:38:00,
2013-09-14 11:39:00,74.0,54.2,29.98,SSE,159,4.0,15.0,50,0.00,,---,0.00,VWS V14.01,2013-09-14 16:39:00,
2013-09-14 11:40:00,74.0,54.2,29.98,SSE,159,2.0,15.0,50,0.00,,---,0.00,VWS V14.01,2013-09-14 16:40:00,
2013-09-14 11:43:00,74.0,54.7,29.98,SE,138,2.0,13.0,51,0.00,,---,0.00,VWS V14.01,2013-09-14 16:43:00,
2013-09-14 11:44:00,74.4,55.7,29.98,SE,124,13.0,14.0,52,0.00,,---,0.00,VWS V14.01,2013-09-14 16:44:00,
2013-09-14 11:45:00,74.4,55.7,29.98,SE,132,13.0,15.0,52,0.00,,---,0.00,VWS V14.01,2013-09-14 16:45:00,
2013-09-14 11:46:00,74.4,54.6,29.98,SSE,150,10.0,15.0,50,0.00,,---,0.00,VWS V14.01,2013-09-14 16:46:00,
2013-09-14 11:48:00,74.7,54.8,29.98,SSE,168,3.0,17.0,50,0.00,,---,0.00,VWS V14.01,2013-09-14 16:48:00,
2013-09-14 11:49:00,74.7,54.3,29.98,SSE,152,9.0,17.0,49,0.00,,---,0.00,VWS V14.01,2013-09-14 16:49:00,
2013-09-14 11:50:00,74.7,54.3,29.98,SSE,150,10.0,17.0,49,0.00,,---,0.00,VWS V14.01,2013-09-14 16:50:00,
2013-09-14 11:51:00,74.6,53.6,29.98,SE,142,11.0,11.0,48,0.00,,---,0.00,VWS V14.01,2013-09-14 16:51:00,
2013-09-14 11:53:00,74.6,54.8,29.98,South,184,2.0,11.0,50,0.00,,---,0.00,VWS V14.01,2013-09-14 16:53:00,
2013-09-14 11:54:00,74.6,54.8,29.98,SSE,161,4.0,11.0,50,0.00,,---,0.00,VWS V14.01,2013-09-14 16:54:00,
2013-09-14 11:55:00,74.6,54.8,29.98,SE,146,3.0,11.0,50,0.00,,---,0.00,VWS V14.01,2013-09-14 16:55:00,
2013-09-14 11:56:00,74.6,54.8,29.98,SSE,151,5.0,11.0,50,0.00,,---,0.00,VWS V14.01,2013-09-14 16:56:00,
2013-09-14 11:58:00,74.7,55.9,29.98,SSE,158,5.0,12.0,52,0.00,,---,0.00,VWS V14.01,2013-09-14 16:58:00,
2013-09-14 11:59:00,74.6,54.2,29.98,SSE,157,2.0,12.0,49,0.00,,---,0.00,VWS V14.01,2013-09-14 16:59:00,
2013-09-14 12:00:00,74.7,54.3,29.98,SSE,150,6.0,12.0,49,0.00,,---,0.00,VWS V14.01,2013-09-14 17:00:00,
2013-09-14 12:02:00,74.6,54.8,29.98,SE,126,4.0,9.0,50,0.00,,---,0.00,VWS V14.01,2013-09-14 17:02:00,
2013-09-14 12:03:00,74.7,54.8,29.98,SSE,148,6.0,17.0,50,0.00,,---,0.00,VWS V14.01,2013-09-14 17:03:00,
2013-09-14 12:04:00,74.7,54.3,29.98,SSE,152,11.0,17.0,49,0.00,,---,0.00,VWS V14.01,2013-09-14 17:04:00,
2013-09-14 12:05:00,74.6,54.2,29.98,SSE,153,11.0,17.0,49,0.00,,---,0.00,VWS V14.01,2013-09-14 17:05:00,
2013-09-14 12:07:00,74.6,55.3,29.98,SSE,149,4.0,17.0,51,0.00,,---,0.00,VWS V14.01,2013-09-14 17:07:00,
2013-09-14 12:08:00,74.6,55.3,29.98,SSE,154,10.0,17.0,51,0.00,,---,0.00,VWS V14.01,2013-09-14 17:08:00,
2013-09-14 12:09:00,74.6,54.2,29.98,SSE,153,9.0,17.0,49,0.00,,---,0.00,VWS V14.01,2013-09-14 17:09:00,
2013-09-14 12:10:00,74.6,54.8,29.98,ESE,120,5.0,17.0,50,0.00,,---,0.00,VWS V14.01,2013-09-14 17:10:00,
2013-09-14 12:12:00,74.7,54.8,29.98,SE,125,10.0,12.0,50,0.00,,---,0.00,VWS V14.01,2013-09-14 17:12:00,
2013-09-14 12:13:00,74.9,55.0,29.98,SE,135,14.0,15.0,50,0.00,,---,0.00,VWS V14.01,2013-09-14 17:13:00,
2013-09-14 12:14:00,74.9,55.0,29.98,SE,138,15.0,16.0,50,0.00,,---,0.00,VWS V14.01,2013-09-14 17:14:00,
2013-09-14 12:15:00,74.7,55.4,29.97,SE,126,13.0,17.0,51,0.00,,---,0.00,VWS V14.01,2013-09-14 17:15:00,
2013-09-14 12:17:00,74.9,55.6,29.97,SE,134,8.0,17.0,51,0.00,,---,0.00,VWS V14.01,2013-09-14 17:17:00,
2013-09-14 12:18:00,75.1,55.2,29.97,SE,146,7.0,17.0,50,0.00,,---,0.00,VWS V14.01,2013-09-14 17:18:00,
2013-09-14 12:19:00,75.1,55.2,29.97,SE,136,11.0,17.0,50,0.00,,---,0.00,VWS V14.01,2013-09-14 17:19:00,
2013-09-14 12:20:00,75.1,55.2,29.97,SE,135,12.0,17.0,50,0.00,,---,0.00,VWS V14.01,2013-09-14 17:20:00,
2013-09-14 12:22:00,75.3,55.9,29.97,SSE,152,9.0,12.0,51,0.00,,---,0.00,VWS V14.01,2013-09-14 17:22:00,
2013-09-14 12:23:00,75.3,54.8,29.97,SE,139,9.0,14.0,49,0.00,,---,0.00,VWS V14.01,2013-09-14 17:23:00,
2013-09-14 12:24:00,75.3,55.4,29.97,SSE,152,7.0,14.0,50,0.00,,---,0.00,VWS V14.01,2013-09-14 17:24:00,
2013-09-14 12:25:00,75.3,55.4,29.97,SSE,148,11.0,14.0,50,0.00,,---,0.00,VWS V14.01,2013-09-14 17:25:00,
2013-09-14 12:28:00,75.3,55.4,29.97,SE,130,9.0,14.0,50,0.00,,---,0.00,VWS V14.01,2013-09-14 17:28:00,
2013-09-14 12:29:00,75.4,54.4,29.97,SE,139,7.0,14.0,48,0.00,,---,0.00,VWS V14.01,2013-09-14 17:29:00,
2013-09-14 12:30:00,75.4,54.4,29.96,SE,132,11.0,14.0,48,0.00,,---,0.00,VWS V14.01,2013-09-14 17:30:00,
2013-09-14 12:33:00,75.6,55.1,29.96,SSE,153,5.0,14.0,49,0.00,,---,0.00,VWS V14.01,2013-09-14 17:33:00,
2013-09-14 12:34:00,75.8,55.3,29.96,ESE,119,11.0,14.0,49,0.00,,---,0.00,VWS V14.01,2013-09-14 17:34:00,
2013-09-14 12:35:00,75.8,55.9,29.96,SE,126,14.0,15.0,50,0.00,,---,0.00,VWS V14.01,2013-09-14 17:35:00,
2013-09-14 12:38:00,75.6,54.5,29.96,SSE,149,11.0,15.0,48,0.00,,---,0.00,VWS V14.01,2013-09-14 17:38:00,
2013-09-14 12:39:00,75.6,55.1,29.96,SE,140,11.0,15.0,49,0.00,,---,0.00,VWS V14.01,2013-09-14 17:39:00,
2013-09-14 12:40:00,75.6,55.1,29.96,SE,130,11.0,15.0,49,0.00,,---,0.00,VWS V14.01,2013-09-14 17:40:00,
2013-09-14 12:43:00,75.8,55.3,29.96,SE,126,9.0,12.0,49,0.00,,---,0.00,VWS V14.01,2013-09-14 17:43:00,
2013-09-14 12:44:00,76.0,55.5,29.96,ESE,117,10.0,12.0,49,0.00,,---,0.00,VWS V14.01,2013-09-14 17:44:00,
2013-09-14 12:45:00,76.0,55.5,29.96,SE,124,6.0,13.0,49,0.00,,---,0.00,VWS V14.01,2013-09-14 17:45:00,
2013-09-14 12:48:00,76.5,55.9,29.96,SE,140,7.0,14.0,49,0.00,,---,0.00,VWS V14.01,2013-09-14 17:48:00,
2013-09-14 12:49:00,76.5,55.9,29.96,SE,140,7.0,14.0,49,0.00,,---,0.00,VWS V14.01,2013-09-14 17:49:00,
2013-09-14 12:50:00,76.5,55.4,29.96,ESE,105,5.0,14.0,48,0.00,,---,0.00,VWS V14.01,2013-09-14 17:50:00,
2013-09-14 12:54:00,76.7,53.8,29.96,SE,142,9.0,14.0,45,0.00,,---,0.00,VWS V14.01,2013-09-14 17:54:00,
2013-09-14 12:55:00,76.7,53.8,29.96,SE,132,14.0,17.0,45,0.00,,---,0.00,VWS V14.01,2013-09-14 17:55:00,
2013-09-14 12:59:00,76.8,53.9,29.96,SE,124,13.0,17.0,45,0.00,,---,0.00,VWS V14.01,2013-09-14 17:59:00,
2013-09-14 13:00:00,76.8,53.3,29.95,SE,139,11.0,17.0,44,0.00,,---,0.00,VWS V14.01,2013-09-14 18:00:00,
2013-09-14 13:04:00,77.0,54.7,29.95,SE,140,13.0,16.0,46,0.00,,---,0.00,VWS V14.01,2013-09-14 18:04:00,
2013-09-14 13:05:00,77.0,54.1,29.95,SE,142,10.0,16.0,45,0.00,,---,0.00,VWS V14.01,2013-09-14 18:05:00,
2013-09-14 13:09:00,76.8,51.3,29.95,SE,133,9.0,18.0,41,0.00,,---,0.00,VWS V14.01,2013-09-14 18:09:00,
2013-09-14 13:10:00,76.8,52.6,29.95,SE,125,11.0,18.0,43,0.00,,---,0.00,VWS V14.01,2013-09-14 18:10:00,
2013-09-14 13:11:00,77.0,54.1,29.95,SE,130,12.0,12.0,45,0.00,,---,0.00,VWS V14.01,2013-09-14 18:11:00,
2013-09-14 13:14:00,77.2,53.6,29.95,SSE,147,10.0,16.0,44,0.00,,---,0.00,VWS V14.01,2013-09-14 18:14:00,
2013-09-14 13:15:00,77.2,53.6,29.94,SSE,148,13.0,18.0,44,0.00,,---,0.00,VWS V14.01,2013-09-14 18:15:00,
2013-09-14 13:16:00,77.2,53.6,29.94,SE,146,10.0,18.0,44,0.00,,---,0.00,VWS V14.01,2013-09-14 18:16:00,
2013-09-14 13:19:00,77.4,55.6,29.94,SSE,161,9.0,18.0,47,0.00,,---,0.00,VWS V14.01,2013-09-14 18:19:00,
2013-09-14 13:20:00,77.2,52.4,29.94,SSE,150,12.0,18.0,42,0.00,,---,0.00,VWS V14.01,2013-09-14 18:20:00,
2013-09-14 13:21:00,77.2,53.0,29.94,SE,127,13.0,13.0,43,0.00,,---,0.00,VWS V14.01,2013-09-14 18:21:00,
2013-09-14 13:25:00,77.6,54.6,29.94,SE,142,1.0,13.0,45,0.00,,---,0.00,VWS V14.01,2013-09-14 18:25:00,
2013-09-14 13:26:00,77.6,54.0,29.94,SSW,194,11.0,13.0,44,0.00,,---,0.00,VWS V14.01,2013-09-14 18:26:00,
2013-09-14 13:30:00,77.4,54.4,29.94,South,169,1.0,13.0,45,0.00,,---,0.00,VWS V14.01,2013-09-14 18:30:00,
2013-09-14 13:31:00,77.4,53.8,29.94,SSE,155,5.0,14.0,44,0.00,,---,0.00,VWS V14.01,2013-09-14 18:31:00,
2013-09-14 13:35:00,77.6,53.4,29.94,SSE,148,11.0,16.0,43,0.00,,---,0.00,VWS V14.01,2013-09-14 18:35:00,
2013-09-14 13:36:00,77.6,53.4,29.94,SE,144,5.0,16.0,43,0.00,,---,0.00,VWS V14.01,2013-09-14 18:36:00,
2013-09-14 13:40:00,77.6,54.6,29.94,SSE,155,9.0,16.0,45,0.00,,---,0.00,VWS V14.01,2013-09-14 18:40:00,
2013-09-14 13:41:00,77.6,54.0,29.94,SSE,151,11.0,11.0,44,0.00,,---,0.00,VWS V14.01,2013-09-14 18:41:00,
2013-09-14 13:45:00,77.7,52.8,29.93,SSE,150,10.0,17.0,42,0.00,,---,0.00,VWS V14.01,2013-09-14 18:45:00,
2013-09-14 13:46:00,77.7,53.5,29.93,SE,143,9.0,17.0,43,0.00,,---,0.00,VWS V14.01,2013-09-14 18:46:00,
2013-09-14 13:47:00,77.7,53.5,29.93,SE,146,11.0,17.0,43,0.00,,---,0.00,VWS V14.01,2013-09-14 18:47:00,
2013-09-14 13:50:00,77.7,53.5,29.93,SE,146,12.0,17.0,43,0.00,,---,0.00,VWS V14.01,2013-09-14 18:50:00,
2013-09-14 13:51:00,77.7,53.5,29.93,SSE,153,14.0,14.0,43,0.00,,---,0.00,VWS V14.01,2013-09-14 18:51:00,
2013-09-14 13:52:00,77.7,53.5,29.93,SE,142,10.0,14.0,43,0.00,,---,0.00,VWS V14.01,2013-09-14 18:52:00,
2013-09-14 13:55:00,77.9,53.6,29.93,SSE,148,11.0,16.0,43,0.00,,---,0.00,VWS V14.01,2013-09-14 18:55:00,
2013-09-14 13:56:00,77.9,54.3,29.93,SSE,153,9.0,16.0,44,0.00,,---,0.00,VWS V14.01,2013-09-14 18:56:00,
2013-09-14 13:57:00,78.1,55.0,29.93,SE,145,9.0,16.0,45,0.00,,---,0.00,VWS V14.01,2013-09-14 18:57:00,
2013-09-14 14:00:00,78.3,55.2,29.93,SSE,148,10.0,16.0,45,0.00,,---,0.00,VWS V14.01,2013-09-14 19:00:00,
2013-09-14 14:01:00,78.3,54.0,29.93,SSE,148,12.0,15.0,43,0.00,,---,0.00,VWS V14.01,2013-09-14 19:01:00,
2013-09-14 14:02:00,78.3,55.2,29.93,SSE,159,7.0,15.0,45,0.00,,---,0.00,VWS V14.01,2013-09-14 19:02:00,
2013-09-14 14:05:00,78.1,55.0,29.93,SE,143,10.0,15.0,45,0.00,,---,0.00,VWS V14.01,2013-09-14 19:05:00,
2013-09-14 14:06:00,78.3,55.2,29.93,SSE,150,12.0,15.0,45,0.00,,---,0.00,VWS V14.01,2013-09-14 19:06:00,
2013-09-14 14:07:00,78.3,55.2,29.93,SE,126,11.0,15.0,45,0.00,,---,0.00,VWS V14.01,2013-09-14 19:07:00,
2013-09-14 14:08:00,78.3,54.0,29.93,SE,129,10.0,15.0,43,0.00,,---,0.00,VWS V14.01,2013-09-14 19:08:00,
2013-09-14 14:10:00,78.5,55.4,29.93,SE,127,11.0,16.0,45,0.00,,---,0.00,VWS V14.01,2013-09-14 19:10:00,
2013-09-14 14:11:00,78.5,55.4,29.93,SE,142,9.0,15.0,45,0.00,,---,0.00,VWS V14.01,2013-09-14 19:11:00,
2013-09-14 14:12:00,78.6,55.5,29.93,SE,136,13.0,15.0,45,0.00,,---,0.00,VWS V14.01,2013-09-14 19:12:00,
2013-09-14 14:13:00,78.6,55.5,29.93,SSE,153,6.0,15.0,45,0.00,,---,0.00,VWS V14.01,2013-09-14 19:13:00,
2013-09-14 14:15:00,78.6,54.9,29.92,SE,126,11.0,16.0,44,0.00,,---,0.00,VWS V14.01,2013-09-14 19:15:00,
2013-09-14 14:16:00,78.6,55.5,29.92,SE,136,9.0,16.0,45,0.00,,---,0.00,VWS V14.01,2013-09-14 19:16:00,
2013-09-14 14:17:00,78.6,55.5,29.92,SE,133,13.0,16.0,45,0.00,,---,0.00,VWS V14.01,2013-09-14 19:17:00,
2013-09-14 14:18:00,78.6,54.9,29.92,SE,139,11.0,16.0,44,0.00,,---,0.00,VWS V14.01,2013-09-14 19:18:00,
2013-09-14 14:20:00,78.6,55.5,29.92,SE,131,15.0,17.0,45,0.00,,---,0.00,VWS V14.01,2013-09-14 19:20:00,
2013-09-14 14:21:00,78.5,54.8,29.92,SE,134,13.0,16.0,44,0.00,,---,0.00,VWS V14.01,2013-09-14 19:21:00,
2013-09-14 14:22:00,78.5,54.8,29.92,SE,127,13.0,16.0,44,0.00,,---,0.00,VWS V14.01,2013-09-14 19:22:00,
2013-09-14 14:23:00,78.5,55.4,29.92,ESE,121,7.0,16.0,45,0.00,,---,0.00,VWS V14.01,2013-09-14 19:23:00,
2013-09-14 14:25:00,78.6,56.1,29.92,ESE,113,12.0,16.0,46,0.00,,---,0.00,VWS V14.01,2013-09-14 19:25:00,
2013-09-14 14:26:00,78.8,55.7,29.92,SE,126,13.0,16.0,45,0.00,,---,0.00,VWS V14.01,2013-09-14 19:26:00,
2013-09-14 14:27:00,78.8,55.7,29.92,SSE,153,5.0,16.0,45,0.00,,---,0.00,VWS V14.01,2013-09-14 19:27:00,
2013-09-14 14:28:00,78.8,55.7,29.92,SE,130,10.0,16.0,45,0.00,,---,0.00,VWS V14.01,2013-09-14 19:28:00,
2013-09-14 14:29:00,78.8,55.7,29.92,SSE,157,5.0,16.0,45,0.00,,---,0.00,VWS V14.01,2013-09-14 19:29:00,
2013-09-14 14:30:00,78.8,56.3,29.91,SE,128,11.0,19.0,46,0.00,,---,0.00,VWS V14.01,2013-09-14 19:30:00,
2013-09-14 14:32:00,79.0,55.9,29.91,SE,128,11.0,14.0,45,0.00,,---,0.00,VWS V14.01,2013-09-14 19:32:00,
2013-09-14 14:33:00,79.0,55.9,29.91,SE,139,11.0,16.0,45,0.00,,---,0.00,VWS V14.01,2013-09-14 19:33:00,
2013-09-14 14:34:00,79.0,55.9,29.91,SE,144,11.0,16.0,45,0.00,,---,0.00,VWS V14.01,2013-09-14 19:34:00,
2013-09-14 14:35:00,79.0,55.9,29.91,ESE,121,13.0,16.0,45,0.00,,---,0.00,VWS V14.01,2013-09-14 19:35:00,
2013-09-14 14:37:00,79.0,56.5,29.91,ESE,113,11.0,16.0,46,0.00,,---,0.00,VWS V14.01,2013-09-14 19:37:00,
2013-09-14 14:38:00,79.0,55.9,29.91,SE,130,14.0,16.0,45,0.00,,---,0.00,VWS V14.01,2013-09-14 19:38:00,
2013-09-14 14:39:00,79.0,56.5,29.91,SE,128,14.0,16.0,46,0.00,,---,0.00,VWS V14.01,2013-09-14 19:39:00,
2013-09-14 14:40:00,79.0,56.5,29.91,SE,138,16.0,17.0,46,0.00,,---,0.00,VWS V14.01,2013-09-14 19:40:00,
2013-09-14 14:42:00,79.0,56.5,29.91,SSE,149,3.0,15.0,46,0.00,,---,0.00,VWS V14.01,2013-09-14 19:42:00,
2013-09-14 14:43:00,79.2,57.2,29.91,SSE,155,4.0,15.0,47,0.00,,---,0.00,VWS V14.01,2013-09-14 19:43:00,
2013-09-14 14:44:00,79.2,57.8,29.91,SE,140,4.0,15.0,48,0.00,,---,0.00,VWS V14.01,2013-09-14 19:44:00,
2013-09-14 14:45:00,79.0,56.5,29.91,South,183,3.0,15.0,46,0.00,,---,0.00,VWS V14.01,2013-09-14 19:45:00,
2013-09-14 14:47:00,79.0,57.7,29.91,SSE,159,7.0,15.0,48,0.00,,---,0.00,VWS V14.01,2013-09-14 19:47:00,
2013-09-14 14:48:00,79.0,57.7,29.91,SSE,164,3.0,15.0,48,0.00,,---,0.00,VWS V14.01,2013-09-14 19:48:00,
2013-09-14 14:49:00,79.0,57.7,29.91,SSE,148,12.0,15.0,48,0.00,,---,0.00,VWS V14.01,2013-09-14 19:49:00,
2013-09-14 14:50:00,79.0,57.1,29.91,SSE,154,10.0,15.0,47,0.00,,---,0.00,VWS V14.01,2013-09-14 19:50:00,
2013-09-14 14:51:00,79.0,57.1,29.91,SSE,155,4.0,10.0,47,0.00,,---,0.00,VWS V14.01,2013-09-14 19:51:00,
2013-09-14 14:52:00,79.0,57.1,29.91,SSE,152,3.0,16.0,47,0.00,,---,0.00,VWS V14.01,2013-09-14 19:52:00,
2013-09-14 14:53:00,79.0,57.1,29.91,SSE,149,4.0,19.0,47,0.00,,---,0.00,VWS V14.01,2013-09-14 19:53:00,
2013-09-14 14:54:00,79.0,57.7,29.91,SSE,157,16.0,19.0,48,0.00,,---,0.00,VWS V14.01,2013-09-14 19:54:00,
2013-09-14 14:56:00,79.0,57.7,29.91,SSE,157,9.0,19.0,48,0.00,,---,0.00,VWS V14.01,2013-09-14 19:56:00,
2013-09-14 14:57:00,79.0,57.7,29.91,SSE,150,9.0,19.0,48,0.00,,---,0.00,VWS V14.01,2013-09-14 19:57:00,
2013-09-14 14:59:00,79.2,57.2,29.91,SE,142,17.0,19.0,47,0.00,,---,0.00,VWS V14.01,2013-09-14 19:59:00,
2013-09-14 15:00:00,79.2,57.8,29.90,SSE,158,10.0,19.0,48,0.00,,---,0.00,VWS V14.01,2013-09-14 20:00:00,
2013-09-14 15:01:00,79.2,57.8,29.90,SSE,150,4.0,6.0,48,0.00,,---,0.00,VWS V14.01,2013-09-14 20:01:00,
2013-09-14 15:02:00,79.2,57.2,29.90,SE,139,6.0,13.0,47,0.00,,---,0.00,VWS V14.01,2013-09-14 20:02:00,
2013-09-14 15:04:00,79.2,57.2,29.90,SSE,148,13.0,16.0,47,0.00,,---,0.00,VWS V14.01,2013-09-14 20:04:00,
2013-09-14 15:05:00,79.4,57.4,29.90,SE,144,16.0,19.0,47,0.00,,---,0.00,VWS V14.01,2013-09-14 20:05:00,
2013-09-14 15:06:00,79.2,56.7,29.90,SE,140,12.0,19.0,46,0.00,,---,0.00,VWS V14.01,2013-09-14 20:06:00,
2013-09-14 15:07:00,79.2,57.2,29.90,SE,141,15.0,19.0,47,0.00,,---,0.00,VWS V14.01,2013-09-14 20:07:00,
2013-09-14 15:09:00,79.4,57.4,29.90,SSE,153,12.0,19.0,47,0.00,,---,0.00,VWS V14.01,2013-09-14 20:09:00,
2013-09-14 15:10:00,79.4,58.0,29.90,SE,145,2.0,19.0,48,0.00,,---,0.00,VWS V14.01,2013-09-14 20:10:00,
2013-09-14 15:11:00,79.4,58.0,29.90,South,177,14.0,14.0,48,0.00,,---,0.00,VWS V14.01,2013-09-14 20:11:00,
2013-09-14 15:12:00,79.4,57.4,29.90,SSE,156,9.0,14.0,47,0.00,,---,0.00,VWS V14.01,2013-09-14 20:12:00,
2013-09-14 15:14:00,79.4,57.4,29.90,SE,124,12.0,16.0,47,0.00,,---,0.00,VWS V14.01,2013-09-14 20:14:00,
2013-09-14 15:15:00,79.6,58.8,29.90,SE,138,15.0,16.0,49,0.00,,---,0.00,VWS V14.01,2013-09-14 20:15:00,
2013-09-14 15:16:00,79.6,57.6,29.90,SE,143,13.0,17.0,47,0.00,,---,0.00,VWS V14.01,2013-09-14 20:16:00,
2013-09-14 15:17:00,79.6,57.6,29.90,SE,139,11.0,17.0,47,0.00,,---,0.00,VWS V14.01,2013-09-14 20:17:00,
2013-09-14 15:20:00,79.6,57.6,29.90,SSE,151,15.0,17.0,47,0.00,,---,0.00,VWS V14.01,2013-09-14 20:20:00,
2013-09-14 15:21:00,79.4,58.0,29.90,SE,138,14.0,17.0,48,0.00,,---,0.00,VWS V14.01,2013-09-14 20:21:00,
2013-09-14 15:22:00,79.4,58.0,29.90,ESE,122,14.0,17.0,48,0.00,,---,0.00,VWS V14.01,2013-09-14 20:22:00,
2013-09-14 15:25:00,79.4,58.0,29.90,SE,136,9.0,17.0,48,0.00,,---,0.00,VWS V14.01,2013-09-14 20:25:00,
2013-09-14 15:26:00,79.6,58.2,29.90,SE,142,5.0,17.0,48,0.00,,---,0.00,VWS V14.01,2013-09-14 20:26:00,
2013-09-14 15:27:00,79.6,58.2,29.90,SSE,153,16.0,19.0,48,0.00,,---,0.00,VWS V14.01,2013-09-14 20:27:00,
2013-09-14 15:30:00,79.8,59.0,29.89,SSE,152,5.0,19.0,49,0.00,,---,0.00,VWS V14.01,2013-09-14 20:30:00,
2013-09-14 15:31:00,79.8,59.0,29.89,SSE,149,6.0,15.0,49,0.00,,---,0.00,VWS V14.01,2013-09-14 20:31:00,
2013-09-14 15:32:00,79.6,57.6,29.89,SE,140,19.0,19.0,47,0.00,,---,0.00,VWS V14.01,2013-09-14 20:32:00,
2013-09-14 15:35:00,79.6,57.6,29.89,SE,142,18.0,21.0,47,0.00,,---,0.00,VWS V14.01,2013-09-14 20:35:00,
2013-09-14 15:36:00,79.6,57.0,29.89,SE,140,15.0,21.0,46,0.00,,---,0.00,VWS V14.01,2013-09-14 20:36:00,
2013-09-14 15:37:00,79.6,57.6,29.89,SSE,149,5.0,21.0,47,0.00,,---,0.00,VWS V14.01,2013-09-14 20:37:00,
2013-09-14 15:40:00,79.8,59.0,29.89,SSE,165,6.0,21.0,49,0.00,,---,0.00,VWS V14.01,2013-09-14 20:40:00,
2013-09-14 15:41:00,79.8,58.4,29.89,SSE,161,5.0,11.0,48,0.00,,---,0.00,VWS V14.01,2013-09-14 20:41:00,
2013-09-14 15:42:00,79.8,58.4,29.89,SSE,164,5.0,11.0,48,0.00,,---,0.00,VWS V14.01,2013-09-14 20:42:00,
2013-09-14 15:45:00,79.6,58.8,29.88,SSE,150,9.0,14.0,49,0.00,,---,0.00,VWS V14.01,2013-09-14 20:45:00,
2013-09-14 15:46:00,79.8,58.4,29.88,SSE,149,16.0,16.0,48,0.00,,---,0.00,VWS V14.01,2013-09-14 20:46:00,
2013-09-14 15:47:00,79.8,58.4,29.88,SSE,147,3.0,16.0,48,0.00,,---,0.00,VWS V14.01,2013-09-14 20:47:00,
2013-09-14 15:50:00,79.9,58.5,29.88,SSE,147,12.0,16.0,48,0.00,,---,0.00,VWS V14.01,2013-09-14 20:50:00,
2013-09-14 15:51:00,79.9,58.5,29.88,SE,136,10.0,11.0,48,0.00,,---,0.00,VWS V14.01,2013-09-14 20:51:00,
2013-09-14 15:52:00,79.9,57.9,29.88,SSE,155,7.0,20.0,47,0.00,,---,0.00,VWS V14.01,2013-09-14 20:52:00,
2013-09-14 15:55:00,79.9,57.9,29.88,SSE,147,12.0,21.0,47,0.00,,---,0.00,VWS V14.01,2013-09-14 20:55:00,
2013-09-14 15:56:00,79.9,57.9,29.88,SE,142,12.0,21.0,47,0.00,,---,0.00,VWS V14.01,2013-09-14 20:56:00,
2013-09-14 15:57:00,79.9,57.9,29.88,SSE,150,12.0,21.0,47,0.00,,---,0.00,VWS V14.01,2013-09-14 20:57:00,
2013-09-14 16:00:00,79.8,57.8,29.87,SE,142,12.0,21.0,47,0.00,,---,0.00,VWS V14.01,2013-09-14 21:00:00,
2013-09-14 16:01:00,79.8,58.4,29.87,SE,128,12.0,16.0,48,0.00,,---,0.00,VWS V14.01,2013-09-14 21:01:00,
2013-09-14 16:02:00,79.8,58.4,29.87,SE,129,16.0,16.0,48,0.00,,---,0.00,VWS V14.01,2013-09-14 21:02:00,
2013-09-14 16:05:00,79.8,58.4,29.87,SSE,148,15.0,19.0,48,0.00,,---,0.00,VWS V14.01,2013-09-14 21:05:00,
2013-09-14 16:06:00,79.8,58.4,29.87,SSE,158,16.0,19.0,48,0.00,,---,0.00,VWS V14.01,2013-09-14 21:06:00,
2013-09-14 16:07:00,79.8,58.4,29.87,SE,134,15.0,19.0,48,0.00,,---,0.00,VWS V14.01,2013-09-14 21:07:00,
2013-09-14 16:10:00,79.9,59.0,29.87,SE,142,13.0,19.0,49,0.00,,---,0.00,VWS V14.01,2013-09-14 21:10:00,
2013-09-14 16:11:00,80.1,59.8,29.87,SSE,152,12.0,13.0,50,0.00,,---,0.00,VWS V14.01,2013-09-14 21:11:00,
2013-09-14 16:12:00,80.1,59.8,29.87,SSE,151,14.0,15.0,50,0.00,,---,0.00,VWS V14.01,2013-09-14 21:12:00,
2013-09-14 16:16:00,80.5,59.0,29.87,ESE,114,12.0,18.0,48,0.00,,---,0.00,VWS V14.01,2013-09-14 21:16:00,
2013-09-14 16:17:00,80.5,59.0,29.87,SSE,147,12.0,18.0,48,0.00,,---,0.00,VWS V14.01,2013-09-14 21:17:00,
2013-09-14 16:20:00,80.5,59.0,29.87,SE,135,12.0,19.0,48,0.00,,---,0.00,VWS V14.01,2013-09-14 21:20:00,
2013-09-14 16:21:00,80.5,58.4,29.87,SE,140,12.0,15.0,47,0.00,,---,0.00,VWS V14.01,2013-09-14 21:21:00,
2013-09-14 16:22:00,80.5,59.0,29.87,SSE,153,12.0,15.0,48,0.00,,---,0.00,VWS V14.01,2013-09-14 21:22:00,
2013-09-14 16:23:00,80.7,59.2,29.87,SE,144,11.0,17.0,48,0.00,,---,0.00,VWS V14.01,2013-09-14 21:23:00,
2013-09-14 16:26:00,80.7,59.8,29.87,SSE,150,17.0,17.0,49,0.00,,---,0.00,VWS V14.01,2013-09-14 21:26:00,
2013-09-14 16:27:00,80.7,59.2,29.87,SSE,154,18.0,18.0,48,0.00,,---,0.00,VWS V14.01,2013-09-14 21:27:00,
2013-09-14 16:28:00,80.7,58.6,29.87,SE,146,16.0,19.0,47,0.00,,---,0.00,VWS V14.01,2013-09-14 21:28:00,
2013-09-14 16:30:00,80.5,59.0,29.86,SE,135,13.0,20.0,48,0.00,,---,0.00,VWS V14.01,2013-09-14 21:30:00,
2013-09-14 16:31:00,80.5,58.4,29.86,SE,142,15.0,17.0,47,0.00,,---,0.00,VWS V14.01,2013-09-14 21:31:00,
2013-09-14 16:32:00,80.5,58.4,29.86,SE,125,11.0,17.0,47,0.00,,---,0.00,VWS V14.01,2013-09-14 21:32:00,
2013-09-14 16:33:00,80.5,59.6,29.86,SE,146,11.0,17.0,49,0.00,,---,0.00,VWS V14.01,2013-09-14 21:33:00,
2013-09-14 16:36:00,80.7,59.2,29.86,SSE,153,11.0,19.0,48,0.00,,---,0.00,VWS V14.01,2013-09-14 21:36:00,
2013-09-14 16:37:00,80.7,59.8,29.86,SE,143,10.0,19.0,49,0.00,,---,0.00,VWS V14.01,2013-09-14 21:37:00,
2013-09-14 16:38:00,80.7,59.8,29.86,SSE,148,6.0,19.0,49,0.00,,---,0.00,VWS V14.01,2013-09-14 21:38:00,
2013-09-14 16:40:00,81.1,59.6,29.86,SE,135,11.0,19.0,48,0.00,,---,0.00,VWS V14.01,2013-09-14 21:40:00,
2013-09-14 16:42:00,81.1,60.2,29.86,SSE,152,6.0,12.0,49,0.00,,---,0.00,VWS V14.01,2013-09-14 21:42:00,
2013-09-14 16:43:00,81.1,59.6,29.86,SE,143,5.0,14.0,48,0.00,,---,0.00,VWS V14.01,2013-09-14 21:43:00,
2013-09-14 16:47:00,80.9,59.4,29.86,SE,126,12.0,19.0,48,0.00,,---,0.00,VWS V14.01,2013-09-14 21:47:00,
2013-09-14 16:48:00,80.9,60.0,29.86,ESE,117,12.0,19.0,49,0.00,,---,0.00,VWS V14.01,2013-09-14 21:48:00,
2013-09-14 16:49:00,80.9,59.4,29.86,SE,146,14.0,19.0,48,0.00,,---,0.00,VWS V14.01,2013-09-14 21:49:00,
2013-09-14 16:50:00,80.7,59.2,29.86,SE,135,11.0,19.0,48,0.00,,---,0.00,VWS V14.01,2013-09-14 21:50:00,
2013-09-14 16:52:00,80.7,59.8,29.86,SSE,147,12.0,13.0,49,0.00,,---,0.00,VWS V14.01,2013-09-14 21:52:00,
2013-09-14 16:53:00,80.7,59.8,29.86,SE,140,15.0,15.0,49,0.00,,---,0.00,VWS V14.01,2013-09-14 21:53:00,
2013-09-14 16:54:00,80.7,59.8,29.86,SSE,167,12.0,15.0,49,0.00,,---,0.00,VWS V14.01,2013-09-14 21:54:00,
2013-09-14 16:57:00,80.9,60.5,29.86,SE,140,15.0,16.0,50,0.00,,---,0.00,VWS V14.01,2013-09-14 21:57:00,
2013-09-14 16:58:00,81.1,60.7,29.86,SE,126,10.0,16.0,50,0.00,,---,0.00,VWS V14.01,2013-09-14 21:58:00,
2013-09-14 16:59:00,81.1,61.3,29.86,SE,145,12.0,17.0,51,0.00,,---,0.00,VWS V14.01,2013-09-14 21:59:00,
2013-09-14 17:00:00,80.9,60.0,29.85,SE,139,14.0,20.0,49,0.00,,---,0.00,VWS V14.01,2013-09-14 22:00:00,
2013-09-14 17:02:00,80.7,59.8,29.85,SSE,149,15.0,18.0,49,0.00,,---,0.00,VWS V14.01,2013-09-14 22:02:00,
2013-09-14 17:03:00,80.7,59.2,29.85,SSE,148,12.0,18.0,48,0.00,,---,0.00,VWS V14.01,2013-09-14 22:03:00,
2013-09-14 17:04:00,80.7,60.3,29.85,SE,132,11.0,18.0,50,0.00,,---,0.00,VWS V14.01,2013-09-14 22:04:00,
2013-09-14 17:05:00,80.7,60.3,29.85,SE,132,10.0,18.0,50,0.00,,---,0.00,VWS V14.01,2013-09-14 22:05:00,
2013-09-14 17:07:00,80.7,60.3,29.85,SE,138,10.0,18.0,50,0.00,,---,0.00,VWS V14.01,2013-09-14 22:07:00,
2013-09-14 17:08:00,80.7,59.8,29.85,SE,138,15.0,18.0,49,0.00,,---,0.00,VWS V14.01,2013-09-14 22:08:00,
2013-09-14 17:10:00,80.7,60.3,29.85,SSE,161,4.0,18.0,50,0.00,,---,0.00,VWS V14.01,2013-09-14 22:10:00,
2013-09-14 17:11:00,80.7,60.9,29.85,SSE,155,13.0,14.0,51,0.00,,---,0.00,VWS V14.01,2013-09-14 22:11:00,
2013-09-14 17:12:00,80.7,60.3,29.85,SSE,150,9.0,14.0,50,0.00,,---,0.00,VWS V14.01,2013-09-14 22:12:00,
2013-09-14 17:13:00,80.7,60.3,29.85,SE,131,9.0,14.0,50,0.00,,---,0.00,VWS V14.01,2013-09-14 22:13:00,
2013-09-14 17:15:00,80.7,60.9,29.85,SSE,150,15.0,15.0,51,0.00,,---,0.00,VWS V14.01,2013-09-14 22:15:00,
2013-09-14 17:16:00,80.5,60.2,29.85,SE,146,12.0,16.0,50,0.00,,---,0.00,VWS V14.01,2013-09-14 22:16:00,
2013-09-14 17:17:00,80.5,60.2,29.85,SSE,152,13.0,17.0,50,0.00,,---,0.00,VWS V14.01,2013-09-14 22:17:00,
2013-09-14 17:18:00,80.5,60.7,29.85,SE,128,12.0,17.0,51,0.00,,---,0.00,VWS V14.01,2013-09-14 22:18:00,
2013-09-14 17:20:00,80.5,60.7,29.85,SE,135,9.0,17.0,51,0.00,,---,0.00,VWS V14.01,2013-09-14 22:20:00,
2013-09-14 17:21:00,80.5,60.2,29.85,SSE,151,12.0,13.0,50,0.00,,---,0.00,VWS V14.01,2013-09-14 22:21:00,
2013-09-14 17:22:00,80.5,60.2,29.85,SE,132,10.0,13.0,50,0.00,,---,0.00,VWS V14.01,2013-09-14 22:22:00,
2013-09-14 17:23:00,80.5,60.7,29.85,SE,145,12.0,14.0,51,0.00,,---,0.00,VWS V14.01,2013-09-14 22:23:00,
2013-09-14 17:24:00,80.5,60.7,29.85,SE,138,12.0,14.0,51,0.00,,---,0.00,VWS V14.01,2013-09-14 22:24:00,
2013-09-14 17:25:00,80.5,60.7,29.85,SSE,149,9.0,14.0,51,0.00,,---,0.00,VWS V14.01,2013-09-14 22:25:00,
2013-09-14 17:26:00,80.5,60.7,29.85,SSE,150,10.0,14.0,51,0.00,,---,0.00,VWS V14.01,2013-09-14 22:26:00,
2013-09-14 17:27:00,80.5,60.7,29.85,SSE,148,7.0,14.0,51,0.00,,---,0.00,VWS V14.01,2013-09-14 22:27:00,
2013-09-14 17:28:00,80.5,61.8,29.85,SE,136,10.0,14.0,53,0.00,,---,0.00,VWS V14.01,2013-09-14 22:28:00,
2013-09-14 17:29:00,80.5,60.7,29.85,SE,141,10.0,14.0,51,0.00,,---,0.00,VWS V14.01,2013-09-14 22:29:00,
2013-09-14 17:30:00,80.5,60.7,29.85,SE,135,9.0,14.0,51,0.00,,---,0.00,VWS V14.01,2013-09-14 22:30:00,
2013-09-14 17:31:00,80.5,60.7,29.85,SE,136,10.0,10.0,51,0.00,,---,0.00,VWS V14.01,2013-09-14 22:31:00,
2013-09-14 17:32:00,80.5,60.7,29.85,SE,126,14.0,14.0,51,0.00,,---,0.00,VWS V14.01,2013-09-14 22:32:00,
2013-09-14 17:33:00,80.3,60.5,29.85,SE,126,10.0,14.0,51,0.00,,---,0.00,VWS V14.01,2013-09-14 22:33:00,
2013-09-14 17:34:00,80.3,61.1,29.85,SE,133,12.0,15.0,52,0.00,,---,0.00,VWS V14.01,2013-09-14 22:34:00,
2013-09-14 17:36:00,80.3,61.1,29.85,SE,134,12.0,15.0,52,0.00,,---,0.00,VWS V14.01,2013-09-14 22:36:00,
2013-09-14 17:37:00,80.3,61.1,29.85,SE,134,10.0,15.0,52,0.00,,---,0.00,VWS V14.01,2013-09-14 22:37:00,
2013-09-14 17:38:00,80.3,61.1,29.85,SSE,157,10.0,15.0,52,0.00,,---,0.00,VWS V14.01,2013-09-14 22:38:00,
2013-09-14 17:39:00,80.3,61.1,29.85,SE,128,11.0,15.0,52,0.00,,---,0.00,VWS V14.01,2013-09-14 22:39:00,
2013-09-14 17:40:00,80.3,61.1,29.85,SE,135,11.0,15.0,52,0.00,,---,0.00,VWS V14.01,2013-09-14 22:40:00,
2013-09-14 17:41:00,80.3,61.1,29.85,SSE,159,11.0,15.0,52,0.00,,---,0.00,VWS V14.01,2013-09-14 22:41:00,
2013-09-14 17:42:00,80.3,61.1,29.85,SSE,152,12.0,15.0,52,0.00,,---,0.00,VWS V14.01,2013-09-14 22:42:00,
2013-09-14 17:43:00,80.3,60.5,29.85,SE,125,11.0,15.0,51,0.00,,---,0.00,VWS V14.01,2013-09-14 22:43:00,
2013-09-14 17:44:00,80.3,60.5,29.85,SE,142,7.0,15.0,51,0.00,,---,0.00,VWS V14.01,2013-09-14 22:44:00,
2013-09-14 17:46:00,80.3,60.5,29.84,SE,144,12.0,16.0,51,0.00,,---,0.00,VWS V14.01,2013-09-14 22:46:00,
2013-09-14 17:47:00,80.3,60.5,29.84,SE,140,14.0,16.0,51,0.00,,---,0.00,VWS V14.01,2013-09-14 22:47:00,
2013-09-14 17:48:00,80.3,60.5,29.84,SSE,158,12.0,16.0,51,0.00,,---,0.00,VWS V14.01,2013-09-14 22:48:00,
2013-09-14 17:49:00,80.3,60.5,29.84,SE,146,11.0,16.0,51,0.00,,---,0.00,VWS V14.01,2013-09-14 22:49:00,
2013-09-14 17:50:00,80.3,61.1,29.84,SE,135,11.0,16.0,52,0.00,,---,0.00,VWS V14.01,2013-09-14 22:50:00,
2013-09-14 17:51:00,80.3,61.1,29.84,SSE,149,8.0,10.0,52,0.00,,---,0.00,VWS V14.01,2013-09-14 22:51:00,
2013-09-14 17:52:00,80.3,61.1,29.84,SE,124,11.0,12.0,52,0.00,,---,0.00,VWS V14.01,2013-09-14 22:52:00,
2013-09-14 17:53:00,80.3,61.1,29.84,SE,142,6.0,12.0,52,0.00,,---,0.00,VWS V14.01,2013-09-14 22:53:00,
2013-09-14 17:54:00,80.3,61.1,29.84,SSE,149,9.0,12.0,52,0.00,,---,0.00,VWS V14.01,2013-09-14 22:54:00,
2013-09-14 17:56:00,80.3,61.1,29.84,SSE,150,6.0,12.0,52,0.00,,---,0.00,VWS V14.01,2013-09-14 22:56:00,
2013-09-14 17:57:00,80.3,61.1,29.84,SE,141,8.0,14.0,52,0.00,,---,0.00,VWS V14.01,2013-09-14 22:57:00,
2013-09-14 17:58:00,80.3,60.5,29.84,SSE,147,10.0,14.0,51,0.00,,---,0.00,VWS V14.01,2013-09-14 22:58:00,
2013-09-14 17:59:00,80.3,60.5,29.84,ESE,120,9.0,14.0,51,0.00,,---,0.00,VWS V14.01,2013-09-14 22:59:00,
2013-09-14 18:00:00,80.5,61.3,29.84,SE,135,8.0,14.0,52,0.00,,---,0.00,VWS V14.01,2013-09-14 23:00:00,
2013-09-14 18:02:00,80.5,61.3,29.84,SE,131,11.0,12.0,52,0.00,,---,0.00,VWS V14.01,2013-09-14 23:02:00,
2013-09-14 18:03:00,80.5,61.3,29.84,SE,146,9.0,12.0,52,0.00,,---,0.00,VWS V14.01,2013-09-14 23:03:00,
2013-09-14 18:04:00,80.7,61.5,29.84,SSE,153,12.0,13.0,52,0.00,,---,0.00,VWS V14.01,2013-09-14 23:04:00,
2013-09-14 18:05:00,80.7,60.9,29.84,SE,144,9.0,13.0,51,0.00,,---,0.00,VWS V14.01,2013-09-14 23:05:00,
2013-09-14 18:07:00,80.7,61.5,29.84,SE,142,12.0,13.0,52,0.00,,---,0.00,VWS V14.01,2013-09-14 23:07:00,
2013-09-14 18:08:00,80.7,61.5,29.84,SSE,153,10.0,15.0,52,0.00,,---,0.00,VWS V14.01,2013-09-14 23:08:00,
2013-09-14 18:09:00,80.7,60.9,29.84,SE,146,9.0,15.0,51,0.00,,---,0.00,VWS V14.01,2013-09-14 23:09:00,
2013-09-14 18:10:00,80.7,61.5,29.84,SE,126,9.0,15.0,52,0.00,,---,0.00,VWS V14.01,2013-09-14 23:10:00,
2013-09-14 18:12:00,80.5,61.3,29.84,SE,141,10.0,15.0,52,0.00,,---,0.00,VWS V14.01,2013-09-14 23:12:00,
2013-09-14 18:13:00,80.5,61.3,29.84,SE,133,9.0,15.0,52,0.00,,---,0.00,VWS V14.01,2013-09-14 23:13:00,
2013-09-14 18:14:00,80.5,61.3,29.84,SE,136,11.0,15.0,52,0.00,,---,0.00,VWS V14.01,2013-09-14 23:14:00,
2013-09-14 18:15:00,80.5,61.3,29.84,SE,140,10.0,15.0,52,0.00,,---,0.00,VWS V14.01,2013-09-14 23:15:00,
2013-09-14 18:17:00,80.3,61.6,29.84,SE,127,7.0,15.0,53,0.00,,---,0.00,VWS V14.01,2013-09-14 23:17:00,
2013-09-14 18:18:00,80.3,61.6,29.84,SE,132,12.0,15.0,53,0.00,,---,0.00,VWS V14.01,2013-09-14 23:18:00,
2013-09-14 18:19:00,80.3,61.1,29.84,SE,135,9.0,15.0,52,0.00,,---,0.00,VWS V14.01,2013-09-14 23:19:00,
2013-09-14 18:20:00,80.3,61.6,29.84,SE,134,9.0,15.0,53,0.00,,---,0.00,VWS V14.01,2013-09-14 23:20:00,
2013-09-14 18:23:00,80.3,61.1,29.84,SE,132,11.0,13.0,52,0.00,,---,0.00,VWS V14.01,2013-09-14 23:23:00,
2013-09-14 18:24:00,80.3,61.6,29.84,SSE,151,11.0,13.0,53,0.00,,---,0.00,VWS V14.01,2013-09-14 23:24:00,
2013-09-14 18:25:00,80.1,61.4,29.84,SSE,147,5.0,13.0,53,0.00,,---,0.00,VWS V14.01,2013-09-14 23:25:00,
2013-09-14 18:28:00,80.1,61.4,29.84,SE,126,10.0,13.0,53,0.00,,---,0.00,VWS V14.01,2013-09-14 23:28:00,
2013-09-14 18:29:00,80.1,61.4,29.84,SE,128,13.0,15.0,53,0.00,,---,0.00,VWS V14.01,2013-09-14 23:29:00,
2013-09-14 18:30:00,80.1,61.4,29.84,SE,139,6.0,15.0,53,0.00,,---,0.00,VWS V14.01,2013-09-14 23:30:00,
2013-09-14 18:31:00,80.1,61.4,29.84,SE,142,10.0,12.0,53,0.00,,---,0.00,VWS V14.01,2013-09-14 23:31:00,
2013-09-14 18:32:00,79.9,61.3,29.84,SE,145,12.0,13.0,53,0.00,,---,0.00,VWS V14.01,2013-09-14 23:32:00,
2013-09-14 18:33:00,79.9,61.3,29.84,SSE,148,7.0,13.0,53,0.00,,---,0.00,VWS V14.01,2013-09-14 23:33:00,
2013-09-14 18:34:00,79.9,61.3,29.84,SE,136,9.0,13.0,53,0.00,,---,0.00,VWS V14.01,2013-09-14 23:34:00,
2013-09-14 18:35:00,79.9,61.8,29.84,SSE,147,8.0,13.0,54,0.00,,---,0.00,VWS V14.01,2013-09-14 23:35:00,
2013-09-14 18:36:00,79.9,61.3,29.84,SE,144,9.0,14.0,53,0.00,,---,0.00,VWS V14.01,2013-09-14 23:36:00,
2013-09-14 18:37:00,79.9,61.8,29.84,SE,136,5.0,14.0,54,0.00,,---,0.00,VWS V14.01,2013-09-14 23:37:00,
2013-09-14 18:38:00,79.8,61.7,29.84,SSE,151,11.0,15.0,54,0.00,,---,0.00,VWS V14.01,2013-09-14 23:38:00,
2013-09-14 18:39:00,79.8,61.7,29.84,SE,146,11.0,15.0,54,0.00,,---,0.00,VWS V14.01,2013-09-14 23:39:00,
2013-09-14 18:40:00,79.8,61.7,29.84,SE,133,11.0,15.0,54,0.00,,---,0.00,VWS V14.01,2013-09-14 23:40:00,
2013-09-14 18:41:00,79.8,61.7,29.84,SSE,155,13.0,16.0,54,0.00,,---,0.00,VWS V14.01,2013-09-14 23:41:00,
2013-09-14 18:42:00,79.8,61.7,29.84,SE,138,13.0,16.0,54,0.00,,---,0.00,VWS V14.01,2013-09-14 23:42:00,
2013-09-14 18:43:00,79.8,61.7,29.84,SE,138,8.0,16.0,54,0.00,,---,0.00,VWS V14.01,2013-09-14 23:43:00,
2013-09-14 18:44:00,79.8,61.7,29.84,SSE,159,12.0,16.0,54,0.00,,---,0.00,VWS V14.01,2013-09-14 23:44:00,
2013-09-14 18:45:00,79.8,61.7,29.84,SE,138,8.0,16.0,54,0.00,,---,0.00,VWS V14.01,2013-09-14 23:45:00,
2013-09-14 18:46:00,79.8,61.7,29.84,SE,146,12.0,16.0,54,0.00,,---,0.00,VWS V14.01,2013-09-14 23:46:00,
2013-09-14 18:47:00,79.8,61.7,29.84,SSE,159,12.0,16.0,54,0.00,,---,0.00,VWS V14.01,2013-09-14 23:47:00,
2013-09-14 18:48:00,79.8,61.7,29.84,SSE,148,9.0,16.0,54,0.00,,---,0.00,VWS V14.01,2013-09-14 23:48:00,
2013-09-14 18:49:00,79.6,61.5,29.84,SE,140,10.0,16.0,54,0.00,,---,0.00,VWS V14.01,2013-09-14 23:49:00,
2013-09-14 18:50:00,79.6,61.5,29.84,SSE,148,10.0,16.0,54,0.00,,---,0.00,VWS V14.01,2013-09-14 23:50:00,
2013-09-14 18:52:00,79.6,61.5,29.84,SSE,151,12.0,12.0,54,0.00,,---,0.00,VWS V14.01,2013-09-14 23:52:00,
2013-09-14 18:53:00,79.6,61.5,29.84,SSE,155,11.0,14.0,54,0.00,,---,0.00,VWS V14.01,2013-09-14 23:53:00,
2013-09-14 18:54:00,79.6,61.5,29.84,SE,134,11.0,14.0,54,0.00,,---,0.00,VWS V14.01,2013-09-14 23:54:00,
2013-09-14 18:55:00,79.6,61.5,29.84,SE,142,9.0,14.0,54,0.00,,---,0.00,VWS V14.01,2013-09-14 23:55:00,
2013-09-14 18:57:00,79.4,61.8,29.84,SE,144,3.0,14.0,55,0.00,,---,0.00,VWS V14.01,2013-09-14 23:57:00,
2013-09-14 18:58:00,79.4,61.8,29.84,SE,144,8.0,14.0,55,0.00,,---,0.00,VWS V14.01,2013-09-14 23:58:00,
2013-09-14 18:59:00,79.4,61.8,29.84,SE,143,7.0,14.0,55,0.00,,---,0.00,VWS V14.01,2013-09-14 23:59:00,
2013-09-14 19:00:00,79.4,61.8,29.84,SE,135,9.0,14.0,55,0.00,,---,0.00,VWS V14.01,2013-09-15 00:00:00,
2013-09-14 19:01:00,79.2,61.7,29.84,SSE,150,11.0,14.0,55,0.00,,---,0.00,VWS V14.01,2013-09-15 00:01:00,
2013-09-14 19:02:00,79.2,61.7,29.84,SE,131,10.0,14.0,55,0.00,,---,0.00,VWS V14.01,2013-09-15 00:02:00,
2013-09-14 19:03:00,79.2,61.7,29.84,SE,142,11.0,14.0,55,0.00,,---,0.00,VWS V14.01,2013-09-15 00:03:00,
2013-09-14 19:04:00,79.2,61.7,29.84,SE,144,12.0,16.0,55,0.00,,---,0.00,VWS V14.01,2013-09-15 00:04:00,
2013-09-14 19:06:00,79.2,61.7,29.84,SE,140,9.0,16.0,55,0.00,,---,0.00,VWS V14.01,2013-09-15 00:06:00,
2013-09-14 19:07:00,79.0,61.5,29.84,SE,140,7.0,16.0,55,0.00,,---,0.00,VWS V14.01,2013-09-15 00:07:00,
2013-09-14 19:08:00,79.0,61.5,29.84,SE,134,10.0,16.0,55,0.00,,---,0.00,VWS V14.01,2013-09-15 00:08:00,
2013-09-14 19:09:00,79.0,61.5,29.84,SE,136,12.0,16.0,55,0.00,,---,0.00,VWS V14.01,2013-09-15 00:09:00,
2013-09-14 19:10:00,79.0,61.5,29.84,SE,135,10.0,16.0,55,0.00,,---,0.00,VWS V14.01,2013-09-15 00:10:00,
2013-09-14 19:12:00,78.8,61.3,29.84,SE,126,7.0,10.0,55,0.00,,---,0.00,VWS V14.01,2013-09-15 00:12:00,
2013-09-14 19:13:00,78.8,61.3,29.84,SE,134,6.0,11.0,55,0.00,,---,0.00,VWS V14.01,2013-09-15 00:13:00,
2013-09-14 19:14:00,78.8,61.3,29.84,SE,132,11.0,11.0,55,0.00,,---,0.00,VWS V14.01,2013-09-15 00:14:00,
2013-09-14 19:17:00,78.6,61.1,29.84,SE,128,9.0,13.0,55,0.00,,---,0.00,VWS V14.01,2013-09-15 00:17:00,
2013-09-14 19:18:00,78.6,61.1,29.84,SE,144,12.0,15.0,55,0.00,,---,0.00,VWS V14.01,2013-09-15 00:18:00,
2013-09-14 19:19:00,78.6,61.1,29.84,SE,141,8.0,15.0,55,0.00,,---,0.00,VWS V14.01,2013-09-15 00:19:00,
2013-09-14 19:20:00,78.5,61.0,29.84,SE,135,9.0,15.0,55,0.00,,---,0.00,VWS V14.01,2013-09-15 00:20:00,
2013-09-14 19:22:00,78.5,61.0,29.84,SE,128,8.0,11.0,55,0.00,,---,0.00,VWS V14.01,2013-09-15 00:22:00,
2013-09-14 19:23:00,78.5,61.5,29.84,SE,135,12.0,12.0,56,0.00,,---,0.00,VWS V14.01,2013-09-15 00:23:00,
2013-09-14 19:24:00,78.5,61.5,29.84,SE,138,7.0,12.0,56,0.00,,---,0.00,VWS V14.01,2013-09-15 00:24:00,
2013-09-14 19:27:00,78.1,61.1,29.84,SE,130,6.0,12.0,56,0.00,,---,0.00,VWS V14.01,2013-09-15 00:27:00,
2013-09-14 19:28:00,78.1,61.6,29.84,SE,130,4.0,12.0,57,0.00,,---,0.00,VWS V14.01,2013-09-15 00:28:00,
2013-09-14 19:29:00,77.9,61.5,29.84,SE,130,3.0,12.0,57,0.00,,---,0.00,VWS V14.01,2013-09-15 00:29:00,
2013-09-14 19:30:00,77.7,61.3,29.84,SE,135,7.0,12.0,57,0.00,,---,0.00,VWS V14.01,2013-09-15 00:30:00,
2013-09-14 19:32:00,77.6,61.2,29.84,SE,125,4.0,6.0,57,0.00,,---,0.00,VWS V14.01,2013-09-15 00:32:00,
2013-09-14 19:33:00,77.6,61.2,29.84,SE,125,8.0,9.0,57,0.00,,---,0.00,VWS V14.01,2013-09-15 00:33:00,
2013-09-14 19:34:00,77.6,61.7,29.84,ESE,123,4.0,9.0,58,0.00,,---,0.00,VWS V14.01,2013-09-15 00:34:00,
2013-09-14 19:38:00,77.2,61.3,29.84,SE,127,7.0,9.0,58,0.00,,---,0.00,VWS V14.01,2013-09-15 00:38:00,
2013-09-14 19:39:00,77.2,61.3,29.84,SE,134,4.0,10.0,58,0.00,,---,0.00,VWS V14.01,2013-09-15 00:39:00,
2013-09-14 19:40:00,77.0,61.1,29.84,SE,135,6.0,10.0,58,0.00,,---,0.00,VWS V14.01,2013-09-15 00:40:00,
2013-09-14 19:43:00,77.0,61.1,29.84,SE,131,7.0,11.0,58,0.00,,---,0.00,VWS V14.01,2013-09-15 00:43:00,
2013-09-14 19:44:00,77.0,61.6,29.84,SE,130,7.0,11.0,59,0.00,,---,0.00,VWS V14.01,2013-09-15 00:44:00,
2013-09-14 19:48:00,76.7,61.3,29.84,SE,132,7.0,11.0,59,0.00,,---,0.00,VWS V14.01,2013-09-15 00:48:00,
2013-09-14 19:49:00,76.7,61.3,29.84,SE,130,8.0,11.0,59,0.00,,---,0.00,VWS V14.01,2013-09-15 00:49:00,
2013-09-14 19:50:00,76.7,61.3,29.84,SE,139,7.0,11.0,59,0.00,,---,0.00,VWS V14.01,2013-09-15 00:50:00,
2013-09-14 19:53:00,76.5,61.1,29.84,SE,130,7.0,12.0,59,0.00,,---,0.00,VWS V14.01,2013-09-15 00:53:00,
2013-09-14 19:54:00,76.3,61.4,29.84,SE,127,7.0,12.0,60,0.00,,---,0.00,VWS V14.01,2013-09-15 00:54:00,
2013-09-14 19:55:00,76.3,61.4,29.84,SE,129,7.0,12.0,60,0.00,,---,0.00,VWS V14.01,2013-09-15 00:55:00,
2013-09-14 19:58:00,76.3,61.4,29.84,SE,133,9.0,12.0,60,0.00,,---,0.00,VWS V14.01,2013-09-15 00:58:00,
2013-09-14 19:59:00,76.3,61.4,29.84,SE,130,6.0,12.0,60,0.00,,---,0.00,VWS V14.01,2013-09-15 00:59:00,
2013-09-14 20:00:00,76.1,61.2,29.84,SE,134,9.0,12.0,60,0.00,,---,0.00,VWS V14.01,2013-09-15 01:00:00,
2013-09-14 20:03:00,76.1,61.2,29.84,SE,133,7.0,12.0,60,0.00,,---,0.00,VWS V14.01,2013-09-15 01:03:00,
2013-09-14 20:04:00,76.1,61.2,29.84,SE,132,10.0,12.0,60,0.00,,---,0.00,VWS V14.01,2013-09-15 01:04:00,
2013-09-14 20:05:00,76.1,61.2,29.84,SE,132,10.0,12.0,60,0.00,,---,0.00,VWS V14.01,2013-09-15 01:05:00,
2013-09-14 20:06:00,76.1,61.2,29.84,SE,138,7.0,12.0,60,0.00,,---,0.00,VWS V14.01,2013-09-15 01:06:00,
2013-09-14 20:08:00,76.1,61.2,29.84,SSE,148,7.0,12.0,60,0.00,,---,0.00,VWS V14.01,2013-09-15 01:08:00,
2013-09-14 20:09:00,76.1,61.2,29.84,SE,129,7.0,12.0,60,0.00,,---,0.00,VWS V14.01,2013-09-15 01:09:00,
2013-09-14 20:10:00,76.0,61.1,29.84,SE,132,10.0,12.0,60,0.00,,---,0.00,VWS V14.01,2013-09-15 01:10:00,
2013-09-14 20:11:00,76.0,61.1,29.84,SE,137,6.0,10.0,60,0.00,,---,0.00,VWS V14.01,2013-09-15 01:11:00,
2013-09-14 20:13:00,76.0,61.1,29.84,SSE,150,6.0,11.0,60,0.00,,---,0.00,VWS V14.01,2013-09-15 01:13:00,
2013-09-14 20:14:00,76.0,61.1,29.84,SE,125,8.0,11.0,60,0.00,,---,0.00,VWS V14.01,2013-09-15 01:14:00,
2013-09-14 20:15:00,76.0,61.1,29.84,SE,126,9.0,11.0,60,0.00,,---,0.00,VWS V14.01,2013-09-15 01:15:00,
2013-09-14 20:16:00,75.8,60.9,29.84,SE,132,12.0,12.0,60,0.00,,---,0.00,VWS V14.01,2013-09-15 01:16:00,
2013-09-14 20:18:00,76.0,61.1,29.84,SE,134,7.0,12.0,60,0.00,,---,0.00,VWS V14.01,2013-09-15 01:18:00,
2013-09-14 20:19:00,76.0,61.1,29.84,ESE,120,7.0,12.0,60,0.00,,---,0.00,VWS V14.01,2013-09-15 01:19:00,
2013-09-14 20:20:00,76.0,61.1,29.84,ESE,119,6.0,12.0,60,0.00,,---,0.00,VWS V14.01,2013-09-15 01:20:00,
2013-09-14 20:21:00,76.0,61.1,29.84,ESE,121,6.0,6.0,60,0.00,,---,0.00,VWS V14.01,2013-09-15 01:21:00,
2013-09-14 20:22:00,75.8,60.9,29.84,SE,133,6.0,11.0,60,0.00,,---,0.00,VWS V14.01,2013-09-15 01:22:00,
2013-09-14 20:23:00,75.8,61.4,29.84,SE,133,10.0,11.0,61,0.00,,---,0.00,VWS V14.01,2013-09-15 01:23:00,
2013-09-14 20:24:00,75.8,61.4,29.84,SE,128,5.0,11.0,61,0.00,,---,0.00,VWS V14.01,2013-09-15 01:24:00,
2013-09-14 20:25:00,75.8,61.4,29.84,SE,140,6.0,11.0,61,0.00,,---,0.00,VWS V14.01,2013-09-15 01:25:00,
2013-09-14 20:26:00,75.6,61.2,29.84,SE,128,8.0,12.0,61,0.00,,---,0.00,VWS V14.01,2013-09-15 01:26:00,
2013-09-14 20:27:00,75.6,61.2,29.84,SE,139,9.0,12.0,61,0.00,,---,0.00,VWS V14.01,2013-09-15 01:27:00,
2013-09-14 20:28:00,75.6,61.2,29.84,SE,131,11.0,12.0,61,0.00,,---,0.00,VWS V14.01,2013-09-15 01:28:00,
2013-09-14 20:29:00,75.6,61.2,29.84,SE,129,10.0,12.0,61,0.00,,---,0.00,VWS V14.01,2013-09-15 01:29:00,
2013-09-14 20:30:00,75.6,61.2,29.84,SE,134,10.0,12.0,61,0.00,,---,0.00,VWS V14.01,2013-09-15 01:30:00,
2013-09-14 20:31:00,75.6,61.2,29.84,SE,128,7.0,10.0,61,0.00,,---,0.00,VWS V14.01,2013-09-15 01:31:00,
2013-09-14 20:33:00,75.6,61.2,29.84,ESE,123,10.0,12.0,61,0.00,,---,0.00,VWS V14.01,2013-09-15 01:33:00,
2013-09-14 20:34:00,75.6,61.2,29.84,ESE,119,7.0,12.0,61,0.00,,---,0.00,VWS V14.01,2013-09-15 01:34:00,
2013-09-14 20:35:00,75.6,61.2,29.84,SE,127,5.0,12.0,61,0.00,,---,0.00,VWS V14.01,2013-09-15 01:35:00,
2013-09-14 20:36:00,75.4,61.0,29.84,SE,132,11.0,12.0,61,0.00,,---,0.00,VWS V14.01,2013-09-15 01:36:00,
2013-09-14 20:38:00,75.4,61.0,29.84,SE,140,10.0,12.0,61,0.00,,---,0.00,VWS V14.01,2013-09-15 01:38:00,
2013-09-14 20:39:00,75.4,61.0,29.84,SE,135,11.0,12.0,61,0.00,,---,0.00,VWS V14.01,2013-09-15 01:39:00,
2013-09-14 20:40:00,75.4,61.0,29.84,SE,129,9.0,12.0,61,0.00,,---,0.00,VWS V14.01,2013-09-15 01:40:00,
2013-09-14 20:41:00,75.3,60.9,29.84,SE,133,10.0,12.0,61,0.00,,---,0.00,VWS V14.01,2013-09-15 01:41:00,
2013-09-14 20:43:00,75.3,61.4,29.84,SE,126,9.0,12.0,62,0.00,,---,0.00,VWS V14.01,2013-09-15 01:43:00,
2013-09-14 20:44:00,75.3,61.4,29.84,SE,136,10.0,12.0,62,0.00,,---,0.00,VWS V14.01,2013-09-15 01:44:00,
2013-09-14 20:45:00,75.3,61.4,29.84,SE,134,10.0,12.0,62,0.00,,---,0.00,VWS V14.01,2013-09-15 01:45:00,
2013-09-14 20:46:00,75.1,61.2,29.84,SE,132,10.0,12.0,62,0.00,,---,0.00,VWS V14.01,2013-09-15 01:46:00,
2013-09-14 20:48:00,75.1,61.2,29.84,SE,130,10.0,12.0,62,0.00,,---,0.00,VWS V14.01,2013-09-15 01:48:00,
2013-09-14 20:49:00,75.1,61.2,29.84,SE,126,9.0,12.0,62,0.00,,---,0.00,VWS V14.01,2013-09-15 01:49:00,
2013-09-14 20:50:00,75.1,61.2,29.84,SE,132,9.0,12.0,62,0.00,,---,0.00,VWS V14.01,2013-09-15 01:50:00,
2013-09-14 20:51:00,74.9,61.0,29.84,SE,139,14.0,16.0,62,0.00,,---,0.00,VWS V14.01,2013-09-15 01:51:00,
2013-09-14 20:53:00,74.9,61.0,29.84,SE,133,6.0,16.0,62,0.00,,---,0.00,VWS V14.01,2013-09-15 01:53:00,
2013-09-14 20:54:00,74.9,61.0,29.84,SE,135,6.0,16.0,62,0.00,,---,0.00,VWS V14.01,2013-09-15 01:54:00,
2013-09-14 20:55:00,74.9,61.5,29.84,ESE,107,6.0,16.0,63,0.00,,---,0.00,VWS V14.01,2013-09-15 01:55:00,
2013-09-14 20:56:00,74.7,61.3,29.84,ESE,123,7.0,16.0,63,0.00,,---,0.00,VWS V14.01,2013-09-15 01:56:00,
2013-09-14 20:58:00,74.7,61.3,29.84,SE,125,6.0,16.0,63,0.00,,---,0.00,VWS V14.01,2013-09-15 01:58:00,
2013-09-14 20:59:00,74.7,61.3,29.84,SE,127,9.0,16.0,63,0.00,,---,0.00,VWS V14.01,2013-09-15 01:59:00,
2013-09-14 21:00:00,74.7,61.3,29.84,SE,131,4.0,16.0,63,0.00,,---,0.00,VWS V14.01,2013-09-15 02:00:00,
2013-09-14 21:01:00,74.6,61.2,29.84,SE,134,9.0,10.0,63,0.00,,---,0.00,VWS V14.01,2013-09-15 02:01:00,
2013-09-14 21:03:00,74.6,61.2,29.84,SE,139,9.0,11.0,63,0.00,,---,0.00,VWS V14.01,2013-09-15 02:03:00,
2013-09-14 21:04:00,74.6,61.2,29.84,SE,135,6.0,11.0,63,0.00,,---,0.00,VWS V14.01,2013-09-15 02:04:00,
2013-09-14 21:05:00,74.6,61.2,29.84,SE,128,6.0,11.0,63,0.00,,---,0.00,VWS V14.01,2013-09-15 02:05:00,
2013-09-14 21:06:00,74.6,61.2,29.84,ESE,123,8.0,14.0,63,0.00,,---,0.00,VWS V14.01,2013-09-15 02:06:00,
2013-09-14 21:07:00,74.6,61.2,29.84,SE,144,11.0,14.0,63,0.00,,---,0.00,VWS V14.01,2013-09-15 02:07:00,
2013-09-14 21:08:00,74.6,61.2,29.84,SE,142,6.0,14.0,63,0.00,,---,0.00,VWS V14.01,2013-09-15 02:08:00,
2013-09-14 21:09:00,74.6,61.2,29.84,ESE,123,6.0,14.0,63,0.00,,---,0.00,VWS V14.01,2013-09-15 02:09:00,
2013-09-14 21:10:00,74.6,61.2,29.84,SE,137,10.0,14.0,63,0.00,,---,0.00,VWS V14.01,2013-09-15 02:10:00,
2013-09-14 21:11:00,74.6,61.2,29.84,ESE,112,7.0,11.0,63,0.00,,---,0.00,VWS V14.01,2013-09-15 02:11:00,
2013-09-14 21:12:00,74.6,61.2,29.84,SE,126,10.0,12.0,63,0.00,,---,0.00,VWS V14.01,2013-09-15 02:12:00,
2013-09-14 21:13:00,74.4,61.0,29.84,SE,136,10.0,14.0,63,0.00,,---,0.00,VWS V14.01,2013-09-15 02:13:00,
2013-09-14 21:14:00,74.4,61.0,29.84,SE,129,10.0,14.0,63,0.00,,---,0.00,VWS V14.01,2013-09-15 02:14:00,
2013-09-14 21:15:00,74.4,61.0,29.84,SE,132,13.0,14.0,63,0.00,,---,0.00,VWS V14.01,2013-09-15 02:15:00,
2013-09-14 21:16:00,74.4,61.0,29.84,SE,128,7.0,14.0,63,0.00,,---,0.00,VWS V14.01,2013-09-15 02:16:00,
2013-09-14 21:17:00,74.4,61.0,29.84,ESE,117,7.0,14.0,63,0.00,,---,0.00,VWS V14.01,2013-09-15 02:17:00,
2013-09-14 21:18:00,74.4,61.4,29.84,ESE,119,7.0,14.0,64,0.00,,---,0.00,VWS V14.01,2013-09-15 02:18:00,
2013-09-14 21:19:00,74.2,61.2,29.84,ESE,123,5.0,14.0,64,0.00,,---,0.00,VWS V14.01,2013-09-15 02:19:00,
2013-09-14 21:20:00,74.2,61.2,29.84,SE,130,10.0,14.0,64,0.00,,---,0.00,VWS V14.01,2013-09-15 02:20:00,
2013-09-14 21:22:00,74.0,61.1,29.84,SE,132,4.0,10.0,64,0.00,,---,0.00,VWS V14.01,2013-09-15 02:22:00,
2013-09-14 21:23:00,74.0,61.1,29.84,SE,129,7.0,10.0,64,0.00,,---,0.00,VWS V14.01,2013-09-15 02:23:00,
2013-09-14 21:24:00,73.9,61.4,29.84,SE,132,5.0,11.0,65,0.00,,---,0.00,VWS V14.01,2013-09-15 02:24:00,
2013-09-14 21:25:00,73.9,61.4,29.84,SE,127,6.0,11.0,65,0.00,,---,0.00,VWS V14.01,2013-09-15 02:25:00,
2013-09-14 21:27:00,73.9,61.4,29.84,SE,128,6.0,11.0,65,0.00,,---,0.00,VWS V14.01,2013-09-15 02:27:00,
2013-09-14 21:28:00,73.9,61.4,29.84,SE,132,6.0,11.0,65,0.00,,---,0.00,VWS V14.01,2013-09-15 02:28:00,
2013-09-14 21:29:00,73.9,61.4,29.84,ESE,120,9.0,11.0,65,0.00,,---,0.00,VWS V14.01,2013-09-15 02:29:00,
2013-09-14 21:30:00,73.9,61.0,29.84,SE,126,11.0,13.0,64,0.00,,---,0.00,VWS V14.01,2013-09-15 02:30:00,
2013-09-14 21:32:00,73.9,61.0,29.84,ESE,123,11.0,11.0,64,0.00,,---,0.00,VWS V14.01,2013-09-15 02:32:00,
2013-09-14 21:33:00,73.9,61.0,29.84,ESE,113,6.0,11.0,64,0.00,,---,0.00,VWS V14.01,2013-09-15 02:33:00,
2013-09-14 21:34:00,73.9,61.0,29.84,SE,134,11.0,14.0,64,0.00,,---,0.00,VWS V14.01,2013-09-15 02:34:00,
2013-09-14 21:36:00,73.9,61.0,29.84,SE,131,10.0,14.0,64,0.00,,---,0.00,VWS V14.01,2013-09-15 02:36:00,
2013-09-14 21:37:00,73.9,61.0,29.84,SE,133,10.0,14.0,64,0.00,,---,0.00,VWS V14.01,2013-09-15 02:37:00,
2013-09-14 21:38:00,73.9,61.0,29.84,SE,126,10.0,14.0,64,0.00,,---,0.00,VWS V14.01,2013-09-15 02:38:00,
2013-09-14 21:39:00,73.9,61.0,29.84,ESE,113,8.0,14.0,64,0.00,,---,0.00,VWS V14.01,2013-09-15 02:39:00,
2013-09-14 21:40:00,73.9,61.0,29.84,SE,135,9.0,14.0,64,0.00,,---,0.00,VWS V14.01,2013-09-15 02:40:00,
2013-09-14 21:41:00,73.9,61.0,29.84,SE,127,9.0,11.0,64,0.00,,---,0.00,VWS V14.01,2013-09-15 02:41:00,
2013-09-14 21:42:00,73.7,60.8,29.84,SE,138,11.0,12.0,64,0.00,,---,0.00,VWS V14.01,2013-09-15 02:42:00,
2013-09-14 21:43:00,73.7,60.8,29.84,SE,130,7.0,13.0,64,0.00,,---,0.00,VWS V14.01,2013-09-15 02:43:00,
2013-09-14 21:44:00,73.7,60.8,29.84,SE,124,10.0,14.0,64,0.00,,---,0.00,VWS V14.01,2013-09-15 02:44:00,
2013-09-14 21:45:00,73.7,60.8,29.84,SE,141,11.0,14.0,64,0.00,,---,0.00,VWS V14.01,2013-09-15 02:45:00,
2013-09-14 21:46:00,73.7,60.8,29.84,SE,127,9.0,14.0,64,0.00,,---,0.00,VWS V14.01,2013-09-15 02:46:00,
2013-09-14 21:47:00,73.7,60.8,29.84,SE,126,10.0,14.0,64,0.00,,---,0.00,VWS V14.01,2013-09-15 02:47:00,
2013-09-14 21:48:00,73.7,60.8,29.84,SE,133,7.0,14.0,64,0.00,,---,0.00,VWS V14.01,2013-09-15 02:48:00,
2013-09-14 21:49:00,73.7,60.8,29.84,SE,127,10.0,14.0,64,0.00,,---,0.00,VWS V14.01,2013-09-15 02:49:00,
2013-09-14 21:50:00,73.7,60.8,29.84,SSE,151,5.0,14.0,64,0.00,,---,0.00,VWS V14.01,2013-09-15 02:50:00,
2013-09-14 21:51:00,73.7,60.8,29.84,SSE,150,4.0,4.0,64,0.00,,---,0.00,VWS V14.01,2013-09-15 02:51:00,
2013-09-14 21:52:00,73.7,60.8,29.84,SSE,148,6.0,8.0,64,0.00,,---,0.00,VWS V14.01,2013-09-15 02:52:00,
2013-09-14 21:53:00,73.7,60.8,29.84,SE,140,9.0,15.0,64,0.00,,---,0.00,VWS V14.01,2013-09-15 02:53:00,
2013-09-14 21:54:00,73.7,60.8,29.84,SE,138,9.0,15.0,64,0.00,,---,0.00,VWS V14.01,2013-09-15 02:54:00,
2013-09-14 21:55:00,73.7,60.8,29.84,SE,138,12.0,15.0,64,0.00,,---,0.00,VWS V14.01,2013-09-15 02:55:00,
2013-09-14 21:56:00,73.7,60.8,29.84,SE,132,7.0,15.0,64,0.00,,---,0.00,VWS V14.01,2013-09-15 02:56:00,
2013-09-14 21:57:00,73.7,60.8,29.84,SE,128,9.0,15.0,64,0.00,,---,0.00,VWS V14.01,2013-09-15 02:57:00,
2013-09-14 21:58:00,73.7,60.8,29.84,SE,145,7.0,15.0,64,0.00,,---,0.00,VWS V14.01,2013-09-15 02:58:00,
2013-09-14 22:00:00,73.5,60.6,29.84,SE,131,8.0,15.0,64,0.00,,---,0.00,VWS V14.01,2013-09-15 03:00:00,
2013-09-14 22:01:00,73.5,60.6,29.84,SE,130,10.0,10.0,64,0.00,,---,0.00,VWS V14.01,2013-09-15 03:01:00,
2013-09-14 22:03:00,73.5,60.6,29.84,SE,130,12.0,12.0,64,0.00,,---,0.00,VWS V14.01,2013-09-15 03:03:00,
2013-09-14 22:05:00,73.5,60.6,29.84,SE,138,10.0,13.0,64,0.00,,---,0.00,VWS V14.01,2013-09-15 03:05:00,
2013-09-14 22:06:00,73.3,60.8,29.84,SE,128,6.0,13.0,65,0.00,,---,0.00,VWS V14.01,2013-09-15 03:06:00,
2013-09-14 22:08:00,73.3,60.8,29.84,SE,131,10.0,13.0,65,0.00,,---,0.00,VWS V14.01,2013-09-15 03:08:00,
2013-09-14 22:10:00,73.3,60.8,29.84,ESE,120,10.0,13.0,65,0.00,,---,0.00,VWS V14.01,2013-09-15 03:10:00,
2013-09-14 22:11:00,73.3,60.8,29.84,SE,125,7.0,10.0,65,0.00,,---,0.00,VWS V14.01,2013-09-15 03:11:00,
2013-09-14 22:13:00,73.3,60.4,29.84,SE,136,11.0,14.0,64,0.00,,---,0.00,VWS V14.01,2013-09-15 03:13:00,
2013-09-14 22:15:00,73.5,60.6,29.84,SE,132,9.0,14.0,64,0.00,,---,0.00,VWS V14.01,2013-09-15 03:15:00,
2013-09-14 22:16:00,73.5,60.6,29.84,SE,125,10.0,14.0,64,0.00,,---,0.00,VWS V14.01,2013-09-15 03:16:00,
2013-09-14 22:17:00,73.5,60.6,29.84,SE,130,8.0,14.0,64,0.00,,---,0.00,VWS V14.01,2013-09-15 03:17:00,
2013-09-14 22:18:00,73.3,60.4,29.84,SE,134,11.0,14.0,64,0.00,,---,0.00,VWS V14.01,2013-09-15 03:18:00,
2013-09-14 22:20:00,73.5,60.6,29.84,SE,134,9.0,14.0,64,0.00,,---,0.00,VWS V14.01,2013-09-15 03:20:00,
2013-09-14 22:21:00,73.5,60.6,29.84,SE,134,9.0,10.0,64,0.00,,---,0.00,VWS V14.01,2013-09-15 03:21:00,
2013-09-14 22:22:00,73.5,60.6,29.84,SE,133,10.0,11.0,64,0.00,,---,0.00,VWS V14.01,2013-09-15 03:22:00,
2013-09-14 22:23:00,73.5,60.2,29.84,SE,132,9.0,13.0,63,0.00,,---,0.00,VWS V14.01,2013-09-15 03:23:00,
2013-09-14 22:25:00,73.5,60.2,29.84,SE,125,7.0,13.0,63,0.00,,---,0.00,VWS V14.01,2013-09-15 03:25:00,
2013-09-14 22:26:00,73.5,60.6,29.84,SE,126,6.0,13.0,64,0.00,,---,0.00,VWS V14.01,2013-09-15 03:26:00,
2013-09-14 22:27:00,73.3,60.4,29.84,ESE,123,9.0,13.0,64,0.00,,---,0.00,VWS V14.01,2013-09-15 03:27:00,
2013-09-14 22:28:00,73.3,60.4,29.84,SE,127,6.0,13.0,64,0.00,,---,0.00,VWS V14.01,2013-09-15 03:28:00,
2013-09-14 22:30:00,73.2,60.3,29.84,SE,125,9.0,13.0,64,0.00,,---,0.00,VWS V14.01,2013-09-15 03:30:00,
2013-09-14 22:31:00,73.2,60.3,29.84,SE,124,9.0,10.0,64,0.00,,---,0.00,VWS V14.01,2013-09-15 03:31:00,
2013-09-14 22:32:00,73.2,60.3,29.84,SE,128,7.0,11.0,64,0.00,,---,0.00,VWS V14.01,2013-09-15 03:32:00,
2013-09-14 22:33:00,73.2,60.3,29.84,SE,134,8.0,11.0,64,0.00,,---,0.00,VWS V14.01,2013-09-15 03:33:00,
2013-09-14 22:34:00,73.2,60.3,29.84,SE,126,9.0,13.0,64,0.00,,---,0.00,VWS V14.01,2013-09-15 03:34:00,
2013-09-14 22:35:00,73.2,60.3,29.84,SE,132,7.0,13.0,64,0.00,,---,0.00,VWS V14.01,2013-09-15 03:35:00,
2013-09-14 22:36:00,73.0,60.1,29.84,SE,128,7.0,13.0,64,0.00,,---,0.00,VWS V14.01,2013-09-15 03:36:00,
2013-09-14 22:37:00,73.2,60.3,29.84,SSE,153,13.0,13.0,64,0.00,,---,0.00,VWS V14.01,2013-09-15 03:37:00,
2013-09-14 22:38:00,73.2,60.3,29.84,SE,127,9.0,13.0,64,0.00,,---,0.00,VWS V14.01,2013-09-15 03:38:00,
2013-09-14 22:39:00,73.2,60.3,29.84,SE,126,4.0,13.0,64,0.00,,---,0.00,VWS V14.01,2013-09-15 03:39:00,
2013-09-14 22:40:00,73.2,60.3,29.84,SE,144,6.0,13.0,64,0.00,,---,0.00,VWS V14.01,2013-09-15 03:40:00,
2013-09-14 22:41:00,73.2,60.3,29.84,SE,138,7.0,10.0,64,0.00,,---,0.00,VWS V14.01,2013-09-15 03:41:00,
2013-09-14 22:42:00,73.2,60.3,29.84,SE,134,6.0,10.0,64,0.00,,---,0.00,VWS V14.01,2013-09-15 03:42:00,
2013-09-14 22:43:00,73.0,60.1,29.84,SE,133,8.0,11.0,64,0.00,,---,0.00,VWS V14.01,2013-09-15 03:43:00,
2013-09-14 22:44:00,73.0,60.1,29.84,SE,131,7.0,12.0,64,0.00,,---,0.00,VWS V14.01,2013-09-15 03:44:00,
2013-09-14 22:45:00,73.0,60.1,29.84,SE,130,7.0,12.0,64,0.00,,---,0.00,VWS V14.01,2013-09-15 03:45:00,
2013-09-14 22:46:00,73.0,60.1,29.84,SE,131,9.0,12.0,64,0.00,,---,0.00,VWS V14.01,2013-09-15 03:46:00,
2013-09-14 22:47:00,73.0,60.1,29.84,SE,131,8.0,12.0,64,0.00,,---,0.00,VWS V14.01,2013-09-15 03:47:00,
2013-09-14 22:48:00,73.0,60.1,29.84,SSE,150,7.0,12.0,64,0.00,,---,0.00,VWS V14.01,2013-09-15 03:48:00,
2013-09-14 22:49:00,73.0,60.1,29.84,SSE,151,9.0,12.0,64,0.00,,---,0.00,VWS V14.01,2013-09-15 03:49:00,
2013-09-14 22:50:00,73.0,60.1,29.84,SSE,149,4.0,12.0,64,0.00,,---,0.00,VWS V14.01,2013-09-15 03:50:00,
2013-09-14 22:51:00,73.0,60.1,29.84,SE,143,6.0,6.0,64,0.00,,---,0.00,VWS V14.01,2013-09-15 03:51:00,
2013-09-14 22:52:00,73.0,60.1,29.84,SE,142,5.0,6.0,64,0.00,,---,0.00,VWS V14.01,2013-09-15 03:52:00,
2013-09-14 22:53:00,73.0,60.5,29.84,SE,143,4.0,8.0,65,0.00,,---,0.00,VWS V14.01,2013-09-15 03:53:00,
2013-09-14 22:54:00,72.8,60.4,29.84,SE,144,4.0,8.0,65,0.00,,---,0.00,VWS V14.01,2013-09-15 03:54:00,
2013-09-14 22:55:00,72.8,60.4,29.84,SE,144,7.0,8.0,65,0.00,,---,0.00,VWS V14.01,2013-09-15 03:55:00,
2013-09-14 22:56:00,72.8,60.4,29.84,SSE,148,6.0,9.0,65,0.00,,---,0.00,VWS V14.01,2013-09-15 03:56:00,
2013-09-14 22:57:00,72.8,60.4,29.84,SSE,149,6.0,9.0,65,0.00,,---,0.00,VWS V14.01,2013-09-15 03:57:00,
2013-09-14 22:58:00,72.8,60.4,29.84,SE,146,9.0,9.0,65,0.00,,---,0.00,VWS V14.01,2013-09-15 03:58:00,
2013-09-14 22:59:00,72.8,60.4,29.84,SE,138,8.0,9.0,65,0.00,,---,0.00,VWS V14.01,2013-09-15 03:59:00,
2013-09-14 23:00:00,72.8,60.4,29.85,SE,135,5.0,9.0,65,0.00,,---,0.00,VWS V14.01,2013-09-15 04:00:00,
2013-09-14 23:01:00,72.8,60.4,29.85,SE,145,4.0,5.0,65,0.00,,---,0.00,VWS V14.01,2013-09-15 04:01:00,
2013-09-14 23:06:00,72.8,60.4,29.85,SE,142,7.0,10.0,65,0.00,,---,0.00,VWS V14.01,2013-09-15 04:06:00,
2013-09-14 23:10:00,72.8,60.4,29.85,SE,135,6.0,10.0,65,0.00,,---,0.00,VWS V14.01,2013-09-15 04:10:00,
2013-09-14 23:11:00,72.8,59.9,29.85,SE,146,4.0,4.0,64,0.00,,---,0.00,VWS V14.01,2013-09-15 04:11:00,
2013-09-14 23:12:00,72.8,59.9,29.85,SSE,148,3.0,11.0,64,0.00,,---,0.00,VWS V14.01,2013-09-15 04:12:00,
2013-09-14 23:16:00,72.8,59.9,29.85,SSE,152,5.0,12.0,64,0.00,,---,0.00,VWS V14.01,2013-09-15 04:16:00,
2013-09-14 23:17:00,72.8,59.9,29.85,SSE,155,2.0,12.0,64,0.00,,---,0.00,VWS V14.01,2013-09-15 04:17:00,
2013-09-14 23:20:00,72.7,60.3,29.85,SSE,158,5.0,12.0,65,0.00,,---,0.00,VWS V14.01,2013-09-15 04:20:00,
2013-09-14 23:21:00,72.7,60.3,29.85,SSE,155,7.0,8.0,65,0.00,,---,0.00,VWS V14.01,2013-09-15 04:21:00,
2013-09-14 23:22:00,72.7,60.3,29.85,SSE,153,3.0,10.0,65,0.00,,---,0.00,VWS V14.01,2013-09-15 04:22:00,
2013-09-14 23:26:00,72.5,60.1,29.85,SSE,151,1.0,11.0,65,0.00,,---,0.00,VWS V14.01,2013-09-15 04:26:00,
2013-09-14 23:27:00,72.5,60.1,29.85,SSE,153,6.0,11.0,65,0.00,,---,0.00,VWS V14.01,2013-09-15 04:27:00,
2013-09-14 23:28:00,72.5,60.1,29.85,SSE,148,5.0,11.0,65,0.00,,---,0.00,VWS V14.01,2013-09-15 04:28:00,
2013-09-14 23:30:00,72.3,59.9,29.85,SSE,158,6.0,11.0,65,0.00,,---,0.00,VWS V14.01,2013-09-15 04:30:00,
2013-09-14 23:31:00,72.3,59.9,29.85,SSE,155,6.0,6.0,65,0.00,,---,0.00,VWS V14.01,2013-09-15 04:31:00,
2013-09-14 23:32:00,72.3,59.9,29.85,SSE,154,3.0,7.0,65,0.00,,---,0.00,VWS V14.01,2013-09-15 04:32:00,
2013-09-14 23:33:00,72.3,59.9,29.85,SSE,157,9.0,9.0,65,0.00,,---,0.00,VWS V14.01,2013-09-15 04:33:00,
2013-09-14 23:36:00,72.1,60.1,29.85,SSE,155,4.0,10.0,66,0.00,,---,0.00,VWS V14.01,2013-09-15 04:36:00,
2013-09-14 23:37:00,72.1,60.1,29.85,SSE,158,4.0,10.0,66,0.00,,---,0.00,VWS V14.01,2013-09-15 04:37:00,
2013-09-14 23:38:00,72.1,60.1,29.85,SSE,153,7.0,13.0,66,0.00,,---,0.00,VWS V14.01,2013-09-15 04:38:00,
2013-09-14 23:39:00,72.1,60.1,29.85,SSE,155,4.0,13.0,66,0.00,,---,0.00,VWS V14.01,2013-09-15 04:39:00,
2013-09-14 23:40:00,72.1,60.1,29.85,SSE,158,5.0,13.0,66,0.00,,---,0.00,VWS V14.01,2013-09-15 04:40:00,
2013-09-14 23:41:00,72.1,60.1,29.85,SSE,150,9.0,9.0,66,0.00,,---,0.00,VWS V14.01,2013-09-15 04:41:00,
2013-09-14 23:42:00,72.1,60.1,29.85,SSE,154,6.0,9.0,66,0.00,,---,0.00,VWS V14.01,2013-09-15 04:42:00,
2013-09-14 23:43:00,72.1,60.1,29.85,SE,134,7.0,9.0,66,0.00,,---,0.00,VWS V14.01,2013-09-15 04:43:00,
2013-09-14 23:44:00,72.1,60.1,29.85,SE,142,5.0,13.0,66,0.00,,---,0.00,VWS V14.01,2013-09-15 04:44:00,
2013-09-14 23:46:00,72.0,60.0,29.85,SSE,154,4.0,13.0,66,0.00,,---,0.00,VWS V14.01,2013-09-15 04:46:00,
2013-09-14 23:47:00,72.0,60.0,29.85,SSE,155,7.0,13.0,66,0.00,,---,0.00,VWS V14.01,2013-09-15 04:47:00,
2013-09-14 23:48:00,72.0,60.0,29.85,SSE,154,6.0,13.0,66,0.00,,---,0.00,VWS V14.01,2013-09-15 04:48:00,
2013-09-14 23:49:00,71.8,59.8,29.85,SSE,166,6.0,13.0,66,0.00,,---,0.00,VWS V14.01,2013-09-15 04:49:00,
2013-09-14 23:50:00,71.8,59.8,29.85,SSE,158,6.0,13.0,66,0.00,,---,0.00,VWS V14.01,2013-09-15 04:50:00,
2013-09-14 23:51:00,71.8,59.8,29.85,SSE,153,9.0,11.0,66,0.00,,---,0.00,VWS V14.01,2013-09-15 04:51:00,
2013-09-14 23:52:00,71.8,59.8,29.85,SSE,153,2.0,11.0,66,0.00,,---,0.00,VWS V14.01,2013-09-15 04:52:00,
2013-09-14 23:53:00,71.8,60.3,29.85,SSE,153,2.0,11.0,67,0.00,,---,0.00,VWS V14.01,2013-09-15 04:53:00,
2013-09-14 23:55:00,71.6,60.1,29.85,SSE,148,5.0,11.0,67,0.00,,---,0.00,VWS V14.01,2013-09-15 04:55:00,
2013-09-14 23:56:00,71.6,60.1,29.85,SSE,156,5.0,11.0,67,0.00,,---,0.00,VWS V14.01,2013-09-15 04:56:00,
2013-09-14 23:57:00,71.6,60.1,29.85,SSE,148,10.0,11.0,67,0.00,,---,0.00,VWS V14.01,2013-09-15 04:57:00,
2013-09-14 23:58:00,71.6,60.1,29.85,SSE,155,2.0,11.0,67,0.00,,---,0.00,VWS V14.01,2013-09-15 04:58:00,